| time (UTC) | temp F | wind direction | speed MPH | gust MPH | rain 1hr in | rain 24hr in | rain mn in | humidity % | barometer mb |
| 20260502203536 | 56 | 248 | 3.0 | 9.0 | 0.00 | 0.00 | 0.00 | 50 | 1016.5 |
| 20260502203433 | 56 | 286 | 3.0 | 9.0 | 0.00 | 0.00 | 0.00 | 50 | 1016.5 |
| 20260502203330 | 56 | 320 | 3.0 | 10.0 | 0.00 | 0.00 | 0.00 | 48 | 1016.5 |
| 20260502203232 | 56 | 321 | 4.0 | 10.0 | 0.00 | 0.00 | 0.00 | 48 | 1016.5 |
| 20260502203131 | 56 | 300 | 4.0 | 12.0 | 0.00 | 0.00 | 0.00 | 47 | 1016.4 |
| 20260502203030 | 56 | 281 | 4.0 | 12.0 | 0.00 | 0.00 | 0.00 | 46 | 1016.5 |
| 20260502202951 | 57 | 30 | 4.0 | 12.0 | 0.00 | 0.00 | 0.00 | 47 | 1016.5 |
| 20260502202937 | 56 | 328 | 4.0 | 12.0 | 0.00 | 0.00 | 0.00 | 48 | 1016.5 |
| 20260502202915 | 56 | 72 | 4.0 | 12.0 | 0.00 | 0.00 | 0.00 | 50 | 1016.7 |
| 20260502202748 | 56 | 28 | 4.0 | 12.0 | 0.00 | 0.00 | 0.00 | 48 | 1016.5 |
| 20260502202624 | 57 | 323 | 4.0 | 12.0 | 0.00 | 0.00 | 0.00 | 49 | 1016.4 |
| 20260502202617 | 57 | 66 | 4.0 | 12.0 | 0.00 | 0.00 | 0.00 | 46 | 1016.5 |
| 20260502202558 | 57 | 313 | 4.0 | 12.0 | 0.00 | 0.00 | 0.00 | 49 | 1016.4 |
| 20260502202219 | 57 | 307 | 4.0 | 12.0 | 0.00 | 0.00 | 0.00 | 47 | 1016.5 |
| 20260502202115 | 57 | 41 | 4.0 | 10.0 | 0.00 | 0.00 | 0.00 | 49 | 1016.5 |
| 20260502202017 | 58 | 9 | 4.0 | 10.0 | 0.00 | 0.00 | 0.00 | 47 | 1016.5 |
| 20260502201915 | 58 | 313 | 4.0 | 10.0 | 0.00 | 0.00 | 0.00 | 48 | 1016.5 |
| 20260502201815 | 58 | 5 | 4.0 | 10.0 | 0.00 | 0.00 | 0.00 | 47 | 1016.7 |
| 20260502201717 | 58 | 336 | 4.0 | 10.0 | 0.00 | 0.00 | 0.00 | 47 | 1016.5 |
| 20260502201617 | 58 | 279 | 4.0 | 10.0 | 0.00 | 0.00 | 0.00 | 47 | 1016.5 |
| 20260502201516 | 58 | 57 | 4.0 | 10.0 | 0.00 | 0.00 | 0.00 | 48 | 1016.5 |
| 20260502201416 | 59 | 56 | 4.0 | 10.0 | 0.00 | 0.00 | 0.00 | 46 | 1016.4 |
| 20260502201314 | 59 | 14 | 4.0 | 12.0 | 0.00 | 0.00 | 0.00 | 47 | 1016.5 |
| 20260502201213 | 59 | 55 | 4.0 | 12.0 | 0.00 | 0.00 | 0.00 | 45 | 1016.5 |
| 20260502201110 | 59 | 336 | 4.0 | 12.0 | 0.00 | 0.00 | 0.00 | 45 | 1016.5 |
| 20260502201014 | 59 | 303 | 4.0 | 12.0 | 0.00 | 0.00 | 0.00 | 45 | 1016.5 |
| 20260502200912 | 59 | 327 | 4.0 | 12.0 | 0.00 | 0.00 | 0.00 | 45 | 1016.7 |
| 20260502200812 | 59 | 230 | 4.0 | 12.0 | 0.00 | 0.00 | 0.00 | 48 | 1016.7 |
| 20260502200709 | 58 | 71 | 4.0 | 12.0 | 0.00 | 0.00 | 0.00 | 46 | 1016.7 |
| 20260502200604 | 58 | 175 | 4.0 | 12.0 | 0.00 | 0.00 | 0.00 | 45 | 1016.7 |
| 20260502200506 | 58 | 265 | 4.0 | 12.0 | 0.00 | 0.00 | 0.00 | 46 | 1016.7 |
| 20260502200404 | 58 | 330 | 4.0 | 12.0 | 0.00 | 0.00 | 0.00 | 47 | 1016.5 |
| 20260502200306 | 58 | 249 | 4.0 | 11.0 | 0.00 | 0.00 | 0.00 | 45 | 1016.7 |
| 20260502200202 | 58 | 5 | 4.0 | 11.0 | 0.00 | 0.00 | 0.00 | 49 | 1016.8 |
| 20260502200005 | 57 | 329 | 4.0 | 11.0 | 0.00 | 0.00 | 0.00 | 51 | 1016.7 |
| 20260502195935 | 56 | 277 | 4.0 | 11.0 | 0.00 | 0.00 | 0.00 | 51 | 1016.8 |
| 20260502195925 | 57 | 271 | 4.0 | 11.0 | 0.00 | 0.00 | 0.00 | 54 | 1016.7 |
| 20260502195703 | 56 | 271 | 5.0 | 11.0 | 0.00 | 0.00 | 0.00 | 48 | 1016.7 |
| 20260502195603 | 56 | 207 | 5.0 | 11.0 | 0.00 | 0.00 | 0.00 | 48 | 1016.8 |
| 20260502195502 | 56 | 279 | 4.0 | 10.0 | 0.00 | 0.00 | 0.00 | 48 | 1016.8 |
| 20260502195436 | 56 | 325 | 4.0 | 10.0 | 0.00 | 0.00 | 0.00 | 47 | 1016.9 |
| 20260502195428 | 56 | 308 | 4.0 | 10.0 | 0.00 | 0.00 | 0.00 | 48 | 1016.9 |
| 20260502195203 | 56 | 348 | 4.0 | 10.0 | 0.00 | 0.00 | 0.00 | 48 | 1016.9 |
| 20260502195106 | 56 | 5 | 5.0 | 10.0 | 0.00 | 0.00 | 0.00 | 47 | 1016.9 |
| 20260502194957 | 56 | 294 | 4.0 | 10.0 | 0.00 | 0.00 | 0.00 | 46 | 1016.9 |
| 20260502194856 | 56 | 265 | 5.0 | 10.0 | 0.00 | 0.00 | 0.00 | 46 | 1016.9 |
| 20260502194758 | 56 | 242 | 5.0 | 12.0 | 0.00 | 0.00 | 0.00 | 47 | 1016.9 |
| 20260502194658 | 56 | 284 | 5.0 | 12.0 | 0.00 | 0.00 | 0.00 | 47 | 1017.0 |
| 20260502194559 | 56 | 336 | 5.0 | 12.0 | 0.00 | 0.00 | 0.00 | 46 | 1016.9 |
| 20260502194455 | 56 | 0 | 5.0 | 12.0 | 0.00 | 0.00 | 0.00 | 46 | 1016.9 |
| 20260502194353 | 56 | 298 | 5.0 | 12.0 | 0.00 | 0.00 | 0.00 | 45 | 1016.9 |
| 20260502194253 | 57 | 15 | 5.0 | 12.0 | 0.00 | 0.00 | 0.00 | 44 | 1017.0 |
| 20260502194226 | 57 | 282 | 5.0 | 12.0 | 0.00 | 0.00 | 0.00 | 45 | 1017.0 |
| 20260502194215 | 57 | 308 | 5.0 | 12.0 | 0.00 | 0.00 | 0.00 | 45 | 1016.9 |
| 20260502193947 | 57 | 279 | 4.0 | 12.0 | 0.00 | 0.00 | 0.00 | 44 | 1017.0 |
| 20260502193848 | 57 | 334 | 4.0 | 12.0 | 0.00 | 0.00 | 0.00 | 45 | 1017.0 |
| 20260502193748 | 58 | 342 | 4.0 | 10.0 | 0.00 | 0.00 | 0.00 | 47 | 1017.0 |
| 20260502193647 | 58 | 55 | 4.0 | 9.0 | 0.00 | 0.00 | 0.00 | 45 | 1016.9 |
| 20260502193548 | 58 | 11 | 3.0 | 8.0 | 0.00 | 0.00 | 0.00 | 46 | 1017.0 |
| 20260502193447 | 58 | 336 | 3.0 | 8.0 | 0.00 | 0.00 | 0.00 | 48 | 1016.9 |
| 20260502193347 | 58 | 343 | 3.0 | 8.0 | 0.00 | 0.00 | 0.00 | 48 | 1016.9 |
| 20260502193246 | 58 | 296 | 3.0 | 8.0 | 0.00 | 0.00 | 0.00 | 47 | 1016.9 |
| 20260502193144 | 57 | 228 | 2.0 | 8.0 | 0.00 | 0.00 | 0.00 | 47 | 1016.9 |
| 20260502193045 | 57 | 294 | 2.0 | 7.0 | 0.00 | 0.00 | 0.00 | 47 | 1017.0 |
| 20260502193027 | 57 | 342 | 3.0 | 11.0 | 0.00 | 0.00 | 0.00 | 48 | 1017.0 |
| 20260502193012 | 57 | 334 | 2.0 | 7.0 | 0.00 | 0.00 | 0.00 | 47 | 1017.0 |
| 20260502192848 | 57 | 319 | 2.0 | 7.0 | 0.00 | 0.00 | 0.00 | 46 | 1016.9 |
| 20260502192842 | 57 | 355 | 3.0 | 11.0 | 0.00 | 0.00 | 0.00 | 46 | 1017.0 |
| 20260502192823 | 57 | 292 | 3.0 | 11.0 | 0.00 | 0.00 | 0.00 | 48 | 1017.1 |
| 20260502192441 | 57 | 355 | 4.0 | 11.0 | 0.00 | 0.00 | 0.00 | 45 | 1017.1 |
| 20260502192411 | 57 | 71 | 4.0 | 11.0 | 0.00 | 0.00 | 0.00 | 45 | 1017.2 |
| 20260502192400 | 57 | 41 | 4.0 | 11.0 | 0.00 | 0.00 | 0.00 | 45 | 1017.1 |
| 20260502192135 | 57 | 5 | 4.0 | 11.0 | 0.00 | 0.00 | 0.00 | 46 | 1017.2 |
| 20260502192033 | 57 | 46 | 5.0 | 11.0 | 0.00 | 0.00 | 0.00 | 45 | 1017.2 |
| 20260502191934 | 57 | 59 | 5.0 | 11.0 | 0.00 | 0.00 | 0.00 | 45 | 1017.2 |
| 20260502191834 | 57 | 33 | 6.0 | 12.0 | 0.00 | 0.00 | 0.00 | 49 | 1017.2 |
| 20260502191818 | 57 | 32 | 6.0 | 13.0 | 0.00 | 0.00 | 0.00 | 45 | 1017.3 |
| 20260502191812 | 57 | 36 | 6.0 | 13.0 | 0.00 | 0.00 | 0.00 | 48 | 1017.2 |
| 20260502191807 | 57 | 38 | 6.0 | 13.0 | 0.00 | 0.00 | 0.00 | 49 | 1017.3 |
| 20260502191801 | 57 | 336 | 6.0 | 13.0 | 0.00 | 0.00 | 0.00 | 47 | 1017.3 |
| 20260502191745 | 57 | 5 | 6.0 | 13.0 | 0.00 | 0.00 | 0.00 | 47 | 1017.2 |
| 20260502191729 | 57 | 0 | 6.0 | 13.0 | 0.00 | 0.00 | 0.00 | 49 | 1017.2 |
| 20260502191442 | 57 | 38 | 6.0 | 13.0 | 0.00 | 0.00 | 0.00 | 46 | 1017.2 |
| 20260502191424 | 57 | 349 | 6.0 | 13.0 | 0.00 | 0.00 | 0.00 | 47 | 1017.3 |
| 20260502190955 | 58 | 5 | 5.0 | 11.0 | 0.00 | 0.00 | 0.00 | 45 | 1017.3 |
| 20260502190945 | 57 | 5 | 6.0 | 13.0 | 0.00 | 0.00 | 0.00 | 46 | 1017.4 |
| 20260502190712 | 58 | 306 | 5.0 | 11.0 | 0.00 | 0.00 | 0.00 | 46 | 1017.3 |
| 20260502190643 | 58 | 40 | 5.0 | 13.0 | 0.00 | 0.00 | 0.00 | 48 | 1017.4 |
| 20260502190635 | 58 | 349 | 5.0 | 13.0 | 0.00 | 0.00 | 0.00 | 47 | 1017.3 |
| 20260502190412 | 58 | 355 | 5.0 | 13.0 | 0.00 | 0.00 | 0.00 | 47 | 1017.3 |
| 20260502190312 | 58 | 336 | 5.0 | 13.0 | 0.00 | 0.00 | 0.00 | 45 | 1017.2 |
| 20260502190206 | 58 | 323 | 5.0 | 13.0 | 0.00 | 0.00 | 0.00 | 46 | 1017.2 |
| 20260502190104 | 58 | 17 | 5.0 | 13.0 | 0.00 | 0.00 | 0.00 | 46 | 1017.2 |
| 20260502190006 | 58 | 306 | 5.0 | 13.0 | 0.00 | 0.00 | 0.00 | 46 | 1017.3 |
| 20260502185941 | 58 | 14 | 6.0 | 13.0 | 0.00 | 0.00 | 0.00 | 47 | 1017.3 |
| 20260502185929 | 58 | 336 | 5.0 | 13.0 | 0.00 | 0.00 | 0.00 | 47 | 1017.3 |
| 20260502185659 | 58 | 10 | 5.0 | 13.0 | 0.00 | 0.00 | 0.00 | 48 | 1017.3 |
| 20260502185559 | 57 | 5 | 5.0 | 13.0 | 0.00 | 0.00 | 0.00 | 47 | 1017.4 |
| 20260502185500 | 57 | 345 | 5.0 | 13.0 | 0.00 | 0.00 | 0.00 | 48 | 1017.3 |
| 20260502185401 | 57 | 349 | 5.0 | 13.0 | 0.00 | 0.00 | 0.00 | 47 | 1017.3 |
| 20260502185300 | 57 | 41 | 5.0 | 13.0 | 0.00 | 0.00 | 0.00 | 47 | 1017.3 |
| 20260502185146 | 57 | 36 | 5.0 | 13.0 | 0.00 | 0.00 | 0.00 | 45 | 1017.4 |
| 20260502185047 | 58 | 23 | 4.0 | 13.0 | 0.00 | 0.00 | 0.00 | 46 | 1017.3 |
| 20260502184947 | 58 | 332 | 4.0 | 11.0 | 0.00 | 0.00 | 0.00 | 47 | 1017.3 |
| 20260502184845 | 58 | 0 | 4.0 | 11.0 | 0.00 | 0.00 | 0.00 | 45 | 1017.3 |
| 20260502184817 | 58 | 11 | 3.0 | 9.0 | 0.00 | 0.00 | 0.00 | 47 | 1017.2 |
| 20260502184807 | 58 | 34 | 3.0 | 11.0 | 0.00 | 0.00 | 0.00 | 44 | 1017.4 |
| 20260502184542 | 58 | 350 | 3.0 | 10.0 | 0.00 | 0.00 | 0.00 | 46 | 1017.2 |
| 20260502184443 | 58 | 128 | 3.0 | 10.0 | 0.00 | 0.00 | 0.00 | 44 | 1017.3 |
| 20260502184343 | 58 | 301 | 4.0 | 10.0 | 0.00 | 0.00 | 0.00 | 43 | 1017.3 |
| 20260502184240 | 58 | 304 | 4.0 | 13.0 | 0.00 | 0.00 | 0.00 | 44 | 1017.2 |
| 20260502184132 | 58 | 315 | 4.0 | 13.0 | 0.00 | 0.00 | 0.00 | 45 | 1017.2 |
| 20260502184105 | 58 | 241 | 5.0 | 13.0 | 0.00 | 0.00 | 0.00 | 44 | 1017.2 |
| 20260502184056 | 58 | 272 | 5.0 | 13.0 | 0.00 | 0.00 | 0.00 | 45 | 1017.2 |
| 20260502183834 | 58 | 300 | 5.0 | 13.0 | 0.00 | 0.00 | 0.00 | 44 | 1017.2 |
| 20260502183735 | 58 | 197 | 5.0 | 15.0 | 0.00 | 0.00 | 0.00 | 45 | 1017.2 |
| 20260502183624 | 58 | 310 | 5.0 | 15.0 | 0.00 | 0.00 | 0.00 | 44 | 1017.2 |
| 20260502183523 | 58 | 306 | 5.0 | 15.0 | 0.00 | 0.00 | 0.00 | 45 | 1017.3 |
| 20260502183423 | 58 | 91 | 5.0 | 15.0 | 0.00 | 0.00 | 0.00 | 43 | 1017.2 |
| 20260502183401 | 58 | 339 | 5.0 | 15.0 | 0.00 | 0.00 | 0.00 | 43 | 1017.3 |
| 20260502183349 | 58 | 289 | 5.0 | 15.0 | 0.00 | 0.00 | 0.00 | 42 | 1017.2 |
| 20260502183118 | 58 | 55 | 5.0 | 15.0 | 0.00 | 0.00 | 0.00 | 49 | 1017.4 |
| 20260502183018 | 58 | 0 | 5.0 | 15.0 | 0.00 | 0.00 | 0.00 | 46 | 1017.3 |
| 20260502182938 | 58 | 22 | 5.0 | 13.0 | 0.00 | 0.00 | 0.00 | 45 | 1017.4 |
| 20260502182922 | 58 | 355 | 5.0 | 15.0 | 0.00 | 0.00 | 0.00 | 43 | 1017.2 |
| 20260502182914 | 58 | 0 | 6.0 | 16.0 | 0.00 | 0.00 | 0.00 | 46 | 1017.3 |
| 20260502182909 | 58 | 169 | 6.0 | 16.0 | 0.00 | 0.00 | 0.00 | 45 | 1017.3 |
| 20260502182511 | 58 | 306 | 6.0 | 16.0 | 0.00 | 0.00 | 0.00 | 47 | 1017.3 |
| 20260502182408 | 58 | 296 | 6.0 | 16.0 | 0.00 | 0.00 | 0.00 | 46 | 1017.3 |
| 20260502182308 | 57 | 316 | 7.0 | 16.0 | 0.00 | 0.00 | 0.00 | 47 | 1017.3 |
| 20260502182210 | 57 | 326 | 7.0 | 16.0 | 0.00 | 0.00 | 0.00 | 47 | 1017.2 |
| 20260502182102 | 57 | 71 | 7.0 | 16.0 | 0.00 | 0.00 | 0.00 | 45 | 1017.2 |
| 20260502182003 | 57 | 5 | 7.0 | 16.0 | 0.00 | 0.00 | 0.00 | 45 | 1017.3 |
| 20260502181902 | 57 | 278 | 6.0 | 16.0 | 0.00 | 0.00 | 0.00 | 45 | 1017.3 |
| 20260502181802 | 57 | 0 | 6.0 | 15.0 | 0.00 | 0.00 | 0.00 | 46 | 1017.4 |
| 20260502181702 | 56 | 5 | 5.0 | 15.0 | 0.00 | 0.00 | 0.00 | 49 | 1017.3 |
| 20260502181602 | 56 | 17 | 5.0 | 15.0 | 0.00 | 0.00 | 0.00 | 49 | 1017.4 |
| 20260502181502 | 56 | 0 | 5.0 | 15.0 | 0.00 | 0.00 | 0.00 | 48 | 1017.3 |
| 20260502181358 | 56 | 279 | 5.0 | 15.0 | 0.00 | 0.00 | 0.00 | 46 | 1017.4 |
| 20260502181258 | 56 | 311 | 5.0 | 15.0 | 0.00 | 0.00 | 0.00 | 46 | 1017.3 |
| 20260502181159 | 56 | 313 | 4.0 | 15.0 | 0.00 | 0.00 | 0.00 | 47 | 1017.4 |
| 20260502181059 | 56 | 340 | 4.0 | 10.0 | 0.00 | 0.00 | 0.00 | 47 | 1017.4 |
| 20260502180958 | 56 | 279 | 4.0 | 10.0 | 0.00 | 0.00 | 0.00 | 46 | 1017.3 |
| 20260502180856 | 56 | 278 | 5.0 | 10.0 | 0.00 | 0.00 | 0.00 | 46 | 1017.4 |
| 20260502180756 | 56 | 300 | 5.0 | 15.0 | 0.00 | 0.00 | 0.00 | 50 | 1017.4 |
| 20260502180656 | 56 | 22 | 5.0 | 15.0 | 0.00 | 0.00 | 0.00 | 48 | 1017.5 |
| 20260502180559 | 57 | 53 | 5.0 | 15.0 | 0.00 | 0.00 | 0.00 | 46 | 1017.4 |
| 20260502180458 | 57 | 326 | 5.0 | 15.0 | 0.00 | 0.00 | 0.00 | 49 | 1017.4 |
| 20260502180352 | 57 | 270 | 5.0 | 15.0 | 0.00 | 0.00 | 0.00 | 47 | 1017.3 |
| 20260502180252 | 57 | 71 | 5.0 | 15.0 | 0.00 | 0.00 | 0.00 | 46 | 1017.3 |
| 20260502180152 | 57 | 79 | 5.0 | 15.0 | 0.00 | 0.00 | 0.00 | 47 | 1017.4 |
| 20260502170440 | 57 | 338 | 3.0 | 9.0 | 0.00 | 0.00 | 0.00 | 47 | 1017.7 |
| 20260502170356 | 56 | 42 | 3.0 | 9.0 | 0.00 | 0.00 | 0.00 | 51 | 1017.8 |
| 20260502170352 | 56 | 86 | 3.0 | 9.0 | 0.00 | 0.00 | 0.00 | 54 | 1017.8 |
| 20260502170341 | 57 | 66 | 3.0 | 9.0 | 0.00 | 0.00 | 0.00 | 53 | 1017.7 |
| 20260502170320 | 56 | 318 | 3.0 | 8.0 | 0.00 | 0.00 | 0.00 | 49 | 1017.7 |
| 20260502164333 | 56 | 313 | 4.0 | 10.0 | 0.00 | 0.00 | 0.00 | 49 | 1017.9 |
| 20260502164233 | 56 | 355 | 4.0 | 10.0 | 0.00 | 0.00 | 0.00 | 47 | 1017.8 |
| 20260502164208 | 56 | 77 | 4.0 | 11.0 | 0.00 | 0.00 | 0.00 | 50 | 1017.9 |
| 20260502164157 | 56 | 342 | 3.0 | 11.0 | 0.00 | 0.00 | 0.00 | 52 | 1017.9 |
| 20260502164133 | 56 | 55 | 4.0 | 11.0 | 0.00 | 0.00 | 0.00 | 52 | 1017.8 |
| 20260502164006 | 56 | 28 | 4.0 | 11.0 | 0.00 | 0.00 | 0.00 | 47 | 1017.9 |
| 20260502163809 | 56 | 53 | 4.0 | 11.0 | 0.00 | 0.00 | 0.00 | 47 | 1017.9 |
| 20260502163756 | 56 | 32 | 4.0 | 11.0 | 0.00 | 0.00 | 0.00 | 50 | 1017.9 |
| 20260502163605 | 56 | 11 | 4.0 | 11.0 | 0.00 | 0.00 | 0.00 | 49 | 1017.9 |
| 20260502163553 | 56 | 82 | 4.0 | 11.0 | 0.00 | 0.00 | 0.00 | 50 | 1017.9 |
| 20260502163333 | 56 | 355 | 4.0 | 11.0 | 0.00 | 0.00 | 0.00 | 49 | 1018.0 |
| 20260502163232 | 56 | 350 | 4.0 | 11.0 | 0.00 | 0.00 | 0.00 | 51 | 1017.9 |
| 20260502163132 | 56 | 349 | 3.0 | 9.0 | 0.00 | 0.00 | 0.00 | 50 | 1017.9 |
| 20260502163034 | 56 | 22 | 3.0 | 9.0 | 0.00 | 0.00 | 0.00 | 52 | 1017.9 |
| 20260502162933 | 56 | 43 | 3.0 | 9.0 | 0.00 | 0.00 | 0.00 | 51 | 1017.8 |
| 20260502162832 | 56 | 22 | 3.0 | 9.0 | 0.00 | 0.00 | 0.00 | 48 | 1017.9 |
| 20260502162632 | 56 | 336 | 3.0 | 8.0 | 0.00 | 0.00 | 0.00 | 48 | 1017.8 |
| 20260502162533 | 56 | 34 | 3.0 | 8.0 | 0.00 | 0.00 | 0.00 | 51 | 1018.0 |
| 20260502162433 | 56 | 5 | 3.0 | 8.0 | 0.00 | 0.00 | 0.00 | 49 | 1017.9 |
| 20260502162328 | 56 | 346 | 3.0 | 8.0 | 0.00 | 0.00 | 0.00 | 48 | 1018.0 |
| 20260502162229 | 56 | 42 | 4.0 | 10.0 | 0.00 | 0.00 | 0.00 | 45 | 1018.0 |
| 20260502162128 | 56 | 64 | 4.0 | 10.0 | 0.00 | 0.00 | 0.00 | 46 | 1018.0 |
| 20260502162029 | 56 | 64 | 4.0 | 10.0 | 0.00 | 0.00 | 0.00 | 52 | 1017.9 |
| 20260502161930 | 56 | 15 | 3.0 | 10.0 | 0.00 | 0.00 | 0.00 | 48 | 1017.9 |
| 20260502161828 | 56 | 0 | 3.0 | 10.0 | 0.00 | 0.00 | 0.00 | 52 | 1017.9 |
| 20260502161730 | 56 | 355 | 3.0 | 10.0 | 0.00 | 0.00 | 0.00 | 52 | 1017.9 |
| 20260502161624 | 56 | 59 | 3.0 | 10.0 | 0.00 | 0.00 | 0.00 | 49 | 1017.9 |
| 20260502161525 | 55 | 44 | 3.0 | 10.0 | 0.00 | 0.00 | 0.00 | 47 | 1017.9 |
| 20260502161425 | 56 | 82 | 3.0 | 10.0 | 0.00 | 0.00 | 0.00 | 47 | 1018.0 |
| 20260502161324 | 56 | 85 | 3.0 | 10.0 | 0.00 | 0.00 | 0.00 | 48 | 1018.0 |
| 20260502161225 | 56 | 93 | 2.0 | 10.0 | 0.00 | 0.00 | 0.00 | 55 | 1018.0 |
| 20260502161125 | 56 | 53 | 2.0 | 9.0 | 0.00 | 0.00 | 0.00 | 54 | 1017.9 |
| 20260502161024 | 56 | 53 | 3.0 | 9.0 | 0.00 | 0.00 | 0.00 | 54 | 1018.0 |
| 20260502160925 | 56 | 53 | 3.0 | 9.0 | 0.00 | 0.00 | 0.00 | 54 | 1017.9 |
| 20260502160855 | 55 | 5 | 3.0 | 10.0 | 0.00 | 0.00 | 0.00 | 53 | 1017.9 |
| 20260502160845 | 55 | 52 | 3.0 | 9.0 | 0.00 | 0.00 | 0.00 | 54 | 1017.9 |
| 20260502160658 | 55 | 59 | 3.0 | 10.0 | 0.00 | 0.00 | 0.00 | 56 | 1017.9 |
| 20260502160648 | 55 | 36 | 3.0 | 10.0 | 0.00 | 0.00 | 0.00 | 51 | 1017.9 |
| 20260502160424 | 55 | 62 | 3.0 | 10.0 | 0.00 | 0.00 | 0.00 | 54 | 1017.9 |
| 20260502160351 | 55 | 40 | 3.0 | 10.0 | 0.00 | 0.00 | 0.00 | 56 | 1017.9 |
| 20260502160341 | 55 | 45 | 3.0 | 10.0 | 0.00 | 0.00 | 0.00 | 54 | 1017.9 |
| 20260502160122 | 54 | 355 | 3.0 | 10.0 | 0.00 | 0.00 | 0.00 | 55 | 1017.9 |
| 20260502152255 | 52 | 47 | 4.0 | 12.0 | 0.00 | 0.00 | 0.00 | 56 | 1017.9 |
| 20260502152204 | 53 | 21 | 4.0 | 12.0 | 0.00 | 0.00 | 0.00 | 53 | 1017.9 |
| 20260502152153 | 52 | 5 | 4.0 | 12.0 | 0.00 | 0.00 | 0.00 | 55 | 1017.9 |
| 20260502152133 | 52 | 5 | 4.0 | 12.0 | 0.00 | 0.00 | 0.00 | 54 | 1017.9 |
| 20260502151854 | 53 | 36 | 4.0 | 12.0 | 0.00 | 0.00 | 0.00 | 52 | 1017.9 |
| 20260502151752 | 53 | 16 | 4.0 | 10.0 | 0.00 | 0.00 | 0.00 | 54 | 1017.9 |
| 20260502151726 | 52 | 355 | 3.0 | 10.0 | 0.00 | 0.00 | 0.00 | 57 | 1017.9 |
| 20260502151716 | 53 | 78 | 3.0 | 10.0 | 0.00 | 0.00 | 0.00 | 58 | 1017.9 |
| 20260502151502 | 52 | 51 | 3.0 | 10.0 | 0.00 | 0.00 | 0.00 | 59 | 1017.8 |
| 20260502151452 | 52 | 51 | 4.0 | 10.0 | 0.00 | 0.00 | 0.00 | 56 | 1017.9 |
| 20260502151430 | 52 | 242 | 4.0 | 10.0 | 0.00 | 0.00 | 0.00 | 57 | 1017.9 |
| 20260502151307 | 52 | 38 | 4.0 | 10.0 | 0.00 | 0.00 | 0.00 | 57 | 1018.0 |
| 20260502151047 | 52 | 22 | 4.0 | 10.0 | 0.00 | 0.00 | 0.00 | 56 | 1017.9 |
| 20260502150948 | 52 | 350 | 4.0 | 10.0 | 0.00 | 0.00 | 0.00 | 59 | 1017.9 |
| 20260502150845 | 52 | 55 | 4.0 | 10.0 | 0.00 | 0.00 | 0.00 | 59 | 1017.8 |
| 20260502150742 | 52 | 44 | 4.0 | 10.0 | 0.00 | 0.00 | 0.00 | 55 | 1017.8 |
| 20260502150638 | 53 | 25 | 4.0 | 10.0 | 0.00 | 0.00 | 0.00 | 56 | 1017.8 |
| 20260502150539 | 53 | 53 | 4.0 | 10.0 | 0.00 | 0.00 | 0.00 | 58 | 1017.7 |
| 20260502150439 | 53 | 73 | 4.0 | 10.0 | 0.00 | 0.00 | 0.00 | 57 | 1017.8 |
| 20260502150406 | 53 | 346 | 4.0 | 11.0 | 0.00 | 0.00 | 0.00 | 57 | 1017.7 |
| 20260502150234 | 53 | 94 | 4.0 | 11.0 | 0.00 | 0.00 | 0.00 | 58 | 1017.8 |
| 20260502150208 | 53 | 24 | 5.0 | 11.0 | 0.00 | 0.00 | 0.00 | 59 | 1017.7 |
| 20260502150157 | 53 | 69 | 5.0 | 11.0 | 0.00 | 0.00 | 0.00 | 61 | 1017.8 |
| 20260502140129 | 49 | 46 | 5.0 | 16.0 | 0.00 | 0.00 | 0.00 | 65 | 1017.3 |
| 20260502140117 | 49 | 21 | 5.0 | 16.0 | 0.00 | 0.00 | 0.00 | 66 | 1017.3 |
| 20260502130740 | 48 | 51 | 5.0 | 14.0 | 0.00 | 0.00 | 0.00 | 67 | 1017.0 |
| 20260502130714 | 48 | 96 | 6.0 | 15.0 | 0.00 | 0.00 | 0.00 | 66 | 1017.0 |
| 20260502130702 | 48 | 128 | 5.0 | 14.0 | 0.00 | 0.00 | 0.00 | 67 | 1016.9 |
| 20260502130432 | 48 | 51 | 6.0 | 15.0 | 0.00 | 0.00 | 0.00 | 67 | 1017.0 |
| 20260502130333 | 48 | 47 | 6.0 | 15.0 | 0.00 | 0.00 | 0.00 | 67 | 1017.0 |
| 20260502130233 | 48 | 82 | 6.0 | 15.0 | 0.00 | 0.00 | 0.00 | 69 | 1017.0 |
| 20260502130132 | 47 | 78 | 7.0 | 15.0 | 0.00 | 0.00 | 0.00 | 66 | 1017.0 |
| 20260502123754 | 46 | 34 | 7.0 | 18.0 | 0.00 | 0.00 | 0.00 | 70 | 1017.1 |
| 20260502123654 | 46 | 57 | 7.0 | 18.0 | 0.00 | 0.00 | 0.00 | 71 | 1017.0 |
| 20260502123631 | 46 | 32 | 7.0 | 18.0 | 0.00 | 0.00 | 0.00 | 69 | 1017.1 |
| 20260502123618 | 46 | 61 | 7.0 | 18.0 | 0.00 | 0.00 | 0.00 | 70 | 1017.1 |
| 20260502123354 | 46 | 61 | 7.0 | 18.0 | 0.00 | 0.00 | 0.00 | 68 | 1017.1 |
| 20260502123254 | 46 | 58 | 7.0 | 18.0 | 0.00 | 0.00 | 0.00 | 69 | 1017.0 |
| 20260502123154 | 46 | 34 | 6.0 | 18.0 | 0.00 | 0.00 | 0.00 | 69 | 1017.0 |
| 20260502123053 | 46 | 72 | 6.0 | 18.0 | 0.00 | 0.00 | 0.00 | 68 | 1017.1 |
| 20260502122953 | 46 | 43 | 6.0 | 18.0 | 0.00 | 0.00 | 0.00 | 68 | 1016.9 |
| 20260502122854 | 46 | 53 | 6.0 | 18.0 | 0.00 | 0.00 | 0.00 | 68 | 1017.0 |
| 20260502122756 | 46 | 50 | 6.0 | 20.0 | 0.00 | 0.00 | 0.00 | 69 | 1017.0 |
| 20260502122649 | 46 | 61 | 6.0 | 20.0 | 0.00 | 0.00 | 0.00 | 68 | 1016.9 |
| 20260502122549 | 46 | 57 | 6.0 | 20.0 | 0.00 | 0.00 | 0.00 | 69 | 1017.0 |
| 20260502122449 | 46 | 48 | 6.0 | 20.0 | 0.00 | 0.00 | 0.00 | 69 | 1016.9 |
| 20260502122349 | 46 | 70 | 6.0 | 20.0 | 0.00 | 0.00 | 0.00 | 69 | 1017.0 |
| 20260502122248 | 46 | 51 | 7.0 | 20.0 | 0.00 | 0.00 | 0.00 | 68 | 1017.0 |
| 20260502122143 | 46 | 74 | 6.0 | 20.0 | 0.00 | 0.00 | 0.00 | 68 | 1016.9 |
| 20260502122044 | 46 | 5 | 7.0 | 20.0 | 0.00 | 0.00 | 0.00 | 67 | 1016.9 |
| 20260502121943 | 46 | 55 | 7.0 | 20.0 | 0.00 | 0.00 | 0.00 | 67 | 1016.9 |
| 20260502121915 | 46 | 78 | 6.0 | 16.0 | 0.00 | 0.00 | 0.00 | 72 | 1016.8 |
| 20260502121904 | 46 | 63 | 6.0 | 20.0 | 0.00 | 0.00 | 0.00 | 71 | 1016.9 |
| 20260502121637 | 46 | 71 | 7.0 | 16.0 | 0.00 | 0.00 | 0.00 | 71 | 1016.9 |
| 20260502121535 | 46 | 58 | 7.0 | 16.0 | 0.00 | 0.00 | 0.00 | 69 | 1016.9 |
| 20260502121438 | 46 | 56 | 7.0 | 16.0 | 0.00 | 0.00 | 0.00 | 68 | 1016.9 |
| 20260502121335 | 46 | 73 | 7.0 | 16.0 | 0.00 | 0.00 | 0.00 | 69 | 1016.9 |
| 20260502121236 | 45 | 51 | 6.0 | 15.0 | 0.00 | 0.00 | 0.00 | 71 | 1016.9 |
| 20260502121136 | 45 | 40 | 6.0 | 15.0 | 0.00 | 0.00 | 0.00 | 71 | 1016.9 |
| 20260502121109 | 45 | 44 | 6.0 | 15.0 | 0.00 | 0.00 | 0.00 | 71 | 1016.8 |
| 20260502121058 | 45 | 41 | 6.0 | 15.0 | 0.00 | 0.00 | 0.00 | 71 | 1016.9 |
| 20260502120836 | 45 | 74 | 7.0 | 15.0 | 0.00 | 0.00 | 0.00 | 71 | 1016.8 |
| 20260502120736 | 45 | 46 | 6.0 | 15.0 | 0.00 | 0.00 | 0.00 | 71 | 1016.8 |
| 20260502120636 | 45 | 46 | 6.0 | 15.0 | 0.00 | 0.00 | 0.00 | 73 | 1016.8 |
| 20260502120535 | 44 | 74 | 6.0 | 15.0 | 0.00 | 0.00 | 0.00 | 72 | 1016.8 |
| 20260502120435 | 44 | 68 | 6.0 | 15.0 | 0.00 | 0.00 | 0.00 | 73 | 1016.7 |
| 20260502120335 | 44 | 45 | 6.0 | 15.0 | 0.00 | 0.00 | 0.00 | 73 | 1016.7 |
| 20260502120236 | 44 | 74 | 6.0 | 15.0 | 0.00 | 0.00 | 0.00 | 74 | 1016.7 |
| 20260502120136 | 44 | 59 | 7.0 | 15.0 | 0.00 | 0.00 | 0.00 | 73 | 1016.8 |
| 20260502115723 | 44 | 74 | 6.0 | 14.0 | 0.00 | 0.00 | 0.00 | 74 | 1016.5 |
| 20260502115624 | 44 | 80 | 6.0 | 14.0 | 0.00 | 0.00 | 0.00 | 74 | 1016.7 |
| 20260502115523 | 44 | 55 | 6.0 | 14.0 | 0.00 | 0.00 | 0.00 | 74 | 1016.7 |
| 20260502115417 | 44 | 69 | 6.0 | 14.0 | 0.00 | 0.00 | 0.00 | 73 | 1016.5 |
| 20260502115351 | 44 | 33 | 6.0 | 14.0 | 0.00 | 0.00 | 0.00 | 73 | 1016.5 |
| 20260502115340 | 44 | 40 | 6.0 | 14.0 | 0.00 | 0.00 | 0.00 | 73 | 1016.5 |
| 20260502115115 | 44 | 101 | 6.0 | 18.0 | 0.00 | 0.00 | 0.00 | 72 | 1016.5 |
| 20260502115017 | 44 | 58 | 6.0 | 18.0 | 0.00 | 0.00 | 0.00 | 73 | 1016.5 |
| 20260502114918 | 44 | 69 | 6.0 | 18.0 | 0.00 | 0.00 | 0.00 | 73 | 1016.5 |
| 20260502114818 | 44 | 18 | 6.0 | 18.0 | 0.00 | 0.00 | 0.00 | 74 | 1016.4 |
| 20260502114717 | 44 | 69 | 6.0 | 18.0 | 0.00 | 0.00 | 0.00 | 74 | 1016.5 |
| 20260502114615 | 44 | 51 | 6.0 | 18.0 | 0.00 | 0.00 | 0.00 | 75 | 1016.5 |
| 20260502114549 | 44 | 355 | 6.0 | 18.0 | 0.00 | 0.00 | 0.00 | 74 | 1016.4 |
| 20260502114537 | 44 | 96 | 6.0 | 18.0 | 0.00 | 0.00 | 0.00 | 74 | 1016.5 |
| 20260502114349 | 44 | 90 | 6.0 | 18.0 | 0.00 | 0.00 | 0.00 | 75 | 1016.4 |
| 20260502114337 | 44 | 55 | 6.0 | 18.0 | 0.00 | 0.00 | 0.00 | 74 | 1016.4 |
| 20260502114115 | 44 | 71 | 6.0 | 14.0 | 0.00 | 0.00 | 0.00 | 75 | 1016.4 |
| 20260502114016 | 44 | 59 | 6.0 | 14.0 | 0.00 | 0.00 | 0.00 | 74 | 1016.4 |
| 20260502113917 | 44 | 55 | 5.0 | 12.0 | 0.00 | 0.00 | 0.00 | 75 | 1016.4 |
| 20260502113817 | 44 | 59 | 5.0 | 12.0 | 0.00 | 0.00 | 0.00 | 75 | 1016.5 |
| 20260502113711 | 44 | 57 | 5.0 | 15.0 | 0.00 | 0.00 | 0.00 | 76 | 1016.5 |
| 20260502113611 | 43 | 70 | 5.0 | 15.0 | 0.00 | 0.00 | 0.00 | 76 | 1016.5 |
| 20260502113510 | 43 | 67 | 5.0 | 15.0 | 0.00 | 0.00 | 0.00 | 77 | 1016.5 |
| 20260502113410 | 43 | 84 | 5.0 | 15.0 | 0.00 | 0.00 | 0.00 | 76 | 1016.4 |
| 20260502113311 | 43 | 57 | 5.0 | 15.0 | 0.00 | 0.00 | 0.00 | 77 | 1016.4 |
| 20260502113211 | 43 | 15 | 5.0 | 15.0 | 0.00 | 0.00 | 0.00 | 76 | 1016.4 |
| 20260502113109 | 43 | 63 | 5.0 | 15.0 | 0.00 | 0.00 | 0.00 | 76 | 1016.5 |
| 20260502113012 | 43 | 67 | 5.0 | 15.0 | 0.00 | 0.00 | 0.00 | 76 | 1016.4 |
| 20260502112909 | 43 | 0 | 5.0 | 15.0 | 0.00 | 0.00 | 0.00 | 76 | 1016.4 |
| 20260502112810 | 43 | 67 | 5.0 | 15.0 | 0.00 | 0.00 | 0.00 | 76 | 1016.4 |
| 20260502112709 | 43 | 53 | 5.0 | 14.0 | 0.00 | 0.00 | 0.00 | 77 | 1016.4 |
| 20260502112610 | 43 | 88 | 5.0 | 14.0 | 0.00 | 0.00 | 0.00 | 77 | 1016.4 |
| 20260502112504 | 42 | 63 | 5.0 | 14.0 | 0.00 | 0.00 | 0.00 | 77 | 1016.4 |
| 20260502112403 | 42 | 22 | 5.0 | 16.0 | 0.00 | 0.00 | 0.00 | 77 | 1016.3 |
| 20260502112306 | 42 | 48 | 5.0 | 16.0 | 0.00 | 0.00 | 0.00 | 77 | 1016.2 |
| 20260502112205 | 42 | 65 | 5.0 | 16.0 | 0.00 | 0.00 | 0.00 | 77 | 1016.2 |
| 20260502112130 | 42 | 26 | 5.0 | 16.0 | 0.00 | 0.00 | 0.00 | 79 | 1016.1 |
| 20260502112121 | 42 | 69 | 5.0 | 16.0 | 0.00 | 0.00 | 0.00 | 78 | 1016.2 |
| 20260502111929 | 42 | 75 | 5.0 | 16.0 | 0.00 | 0.00 | 0.00 | 79 | 1016.1 |
| 20260502111919 | 42 | 52 | 5.0 | 16.0 | 0.00 | 0.00 | 0.00 | 78 | 1016.2 |
| 20260502111658 | 43 | 38 | 6.0 | 17.0 | 0.00 | 0.00 | 0.00 | 78 | 1016.1 |
| 20260502111559 | 43 | 71 | 6.0 | 17.0 | 0.00 | 0.00 | 0.00 | 78 | 1016.0 |
| 20260502111453 | 43 | 38 | 6.0 | 17.0 | 0.00 | 0.00 | 0.00 | 77 | 1016.0 |
| 20260502111352 | 43 | 71 | 6.0 | 17.0 | 0.00 | 0.00 | 0.00 | 77 | 1016.1 |
| 20260502111325 | 43 | 24 | 6.0 | 17.0 | 0.00 | 0.00 | 0.00 | 77 | 1016.0 |
| 20260502111313 | 43 | 42 | 6.0 | 17.0 | 0.00 | 0.00 | 0.00 | 77 | 1016.0 |
| 20260502111052 | 43 | 76 | 6.0 | 17.0 | 0.00 | 0.00 | 0.00 | 76 | 1015.9 |
| 20260502110951 | 43 | 99 | 6.0 | 17.0 | 0.00 | 0.00 | 0.00 | 77 | 1015.9 |
| 20260502110852 | 43 | 57 | 6.0 | 17.0 | 0.00 | 0.00 | 0.00 | 76 | 1015.9 |
| 20260502110752 | 43 | 69 | 6.0 | 17.0 | 0.00 | 0.00 | 0.00 | 76 | 1016.0 |
| 20260502110652 | 43 | 40 | 6.0 | 16.0 | 0.00 | 0.00 | 0.00 | 77 | 1016.0 |
| 20260502110552 | 43 | 69 | 6.0 | 16.0 | 0.00 | 0.00 | 0.00 | 77 | 1015.9 |
| 20260502110452 | 43 | 30 | 6.0 | 16.0 | 0.00 | 0.00 | 0.00 | 77 | 1016.0 |
| 20260502110352 | 42 | 46 | 6.0 | 14.0 | 0.00 | 0.00 | 0.00 | 77 | 1016.0 |
| 20260502110252 | 42 | 65 | 6.0 | 14.0 | 0.00 | 0.00 | 0.00 | 77 | 1016.0 |
| 20260502110151 | 42 | 36 | 6.0 | 14.0 | 0.00 | 0.00 | 0.00 | 77 | 1016.0 |
| 20260502110051 | 42 | 44 | 5.0 | 14.0 | 0.00 | 0.00 | 0.00 | 78 | 1016.1 |
| 20260502105951 | 42 | 56 | 5.0 | 13.0 | 0.00 | 0.00 | 0.00 | 78 | 1016.0 |
| 20260502105853 | 42 | 69 | 5.0 | 13.0 | 0.00 | 0.00 | 0.00 | 78 | 1016.0 |
| 20260502105741 | 42 | 61 | 5.0 | 13.0 | 0.00 | 0.00 | 0.00 | 78 | 1016.0 |
| 20260502105643 | 42 | 60 | 5.0 | 12.0 | 0.00 | 0.00 | 0.00 | 78 | 1016.0 |
| 20260502105543 | 42 | 55 | 5.0 | 12.0 | 0.00 | 0.00 | 0.00 | 78 | 1015.9 |
| 20260502105442 | 42 | 61 | 5.0 | 12.0 | 0.00 | 0.00 | 0.00 | 78 | 1016.0 |
| 20260502105342 | 42 | 48 | 5.0 | 13.0 | 0.00 | 0.00 | 0.00 | 78 | 1015.9 |
| 20260502105242 | 42 | 63 | 5.0 | 13.0 | 0.00 | 0.00 | 0.00 | 78 | 1016.0 |
| 20260502105144 | 42 | 64 | 5.0 | 13.0 | 0.00 | 0.00 | 0.00 | 78 | 1016.0 |
| 20260502105041 | 42 | 51 | 5.0 | 13.0 | 0.00 | 0.00 | 0.00 | 78 | 1016.0 |
| 20260502104942 | 42 | 68 | 5.0 | 13.0 | 0.00 | 0.00 | 0.00 | 78 | 1016.0 |
| 20260502104841 | 42 | 64 | 5.0 | 13.0 | 0.00 | 0.00 | 0.00 | 77 | 1016.0 |
| 20260502104742 | 42 | 32 | 5.0 | 13.0 | 0.00 | 0.00 | 0.00 | 77 | 1016.0 |
| 20260502104642 | 42 | 61 | 5.0 | 13.0 | 0.00 | 0.00 | 0.00 | 77 | 1016.0 |
| 20260502104543 | 42 | 38 | 5.0 | 13.0 | 0.00 | 0.00 | 0.00 | 78 | 1016.0 |
| 20260502104443 | 42 | 66 | 5.0 | 13.0 | 0.00 | 0.00 | 0.00 | 78 | 1016.0 |
| 20260502104341 | 42 | 18 | 5.0 | 12.0 | 0.00 | 0.00 | 0.00 | 77 | 1016.1 |
| 20260502104242 | 42 | 78 | 5.0 | 13.0 | 0.00 | 0.00 | 0.00 | 77 | 1016.1 |
| 20260502104219 | 42 | 46 | 5.0 | 13.0 | 0.00 | 0.00 | 0.00 | 77 | 1016.2 |
| 20260502104206 | 42 | 40 | 5.0 | 13.0 | 0.00 | 0.00 | 0.00 | 77 | 1016.1 |
| 20260502104016 | 42 | 84 | 5.0 | 13.0 | 0.00 | 0.00 | 0.00 | 77 | 1016.1 |
| 20260502104003 | 42 | 33 | 5.0 | 13.0 | 0.00 | 0.00 | 0.00 | 77 | 1016.1 |
| 20260502103819 | 43 | 49 | 6.0 | 13.0 | 0.00 | 0.00 | 0.00 | 77 | 1016.1 |
| 20260502103806 | 43 | 71 | 5.0 | 13.0 | 0.00 | 0.00 | 0.00 | 77 | 1016.1 |
| 20260502103541 | 43 | 52 | 6.0 | 13.0 | 0.00 | 0.00 | 0.00 | 76 | 1016.0 |
| 20260502103441 | 43 | 57 | 6.0 | 13.0 | 0.00 | 0.00 | 0.00 | 76 | 1016.0 |
| 20260502103342 | 43 | 57 | 5.0 | 13.0 | 0.00 | 0.00 | 0.00 | 76 | 1016.0 |
| 20260502103243 | 43 | 36 | 6.0 | 13.0 | 0.00 | 0.00 | 0.00 | 76 | 1016.0 |
| 20260502103138 | 43 | 48 | 5.0 | 13.0 | 0.00 | 0.00 | 0.00 | 76 | 1016.1 |
| 20260502103038 | 43 | 51 | 5.0 | 12.0 | 0.00 | 0.00 | 0.00 | 76 | 1016.1 |
| 20260502102939 | 43 | 49 | 5.0 | 12.0 | 0.00 | 0.00 | 0.00 | 76 | 1016.1 |
| 20260502102837 | 43 | 68 | 5.0 | 12.0 | 0.00 | 0.00 | 0.00 | 76 | 1016.2 |
| 20260502102738 | 43 | 47 | 5.0 | 12.0 | 0.00 | 0.00 | 0.00 | 77 | 1016.2 |
| 20260502102639 | 43 | 32 | 5.0 | 12.0 | 0.00 | 0.00 | 0.00 | 76 | 1016.2 |
| 20260502102539 | 43 | 52 | 5.0 | 12.0 | 0.00 | 0.00 | 0.00 | 76 | 1016.2 |
| 20260502102434 | 43 | 80 | 5.0 | 12.0 | 0.00 | 0.00 | 0.00 | 76 | 1016.2 |
| 20260502102406 | 43 | 68 | 5.0 | 12.0 | 0.00 | 0.00 | 0.00 | 76 | 1016.1 |
| 20260502102235 | 43 | 69 | 5.0 | 12.0 | 0.00 | 0.00 | 0.00 | 76 | 1016.1 |
| 20260502102134 | 43 | 51 | 5.0 | 12.0 | 0.00 | 0.00 | 0.00 | 76 | 1016.1 |
| 20260502102033 | 43 | 38 | 5.0 | 12.0 | 0.00 | 0.00 | 0.00 | 76 | 1016.0 |
| 20260502101951 | 43 | 84 | 4.0 | 12.0 | 0.00 | 0.00 | 0.00 | 76 | 1016.0 |
| 20260502101938 | 43 | 85 | 5.0 | 12.0 | 0.00 | 0.00 | 0.00 | 77 | 1016.1 |
| 20260502101916 | 43 | 28 | 5.0 | 12.0 | 0.00 | 0.00 | 0.00 | 76 | 1016.0 |
| 20260502101635 | 43 | 41 | 4.0 | 11.0 | 0.00 | 0.00 | 0.00 | 77 | 1015.9 |
| 20260502101533 | 43 | 64 | 4.0 | 11.0 | 0.00 | 0.00 | 0.00 | 77 | 1015.9 |
| 20260502101434 | 43 | 76 | 4.0 | 11.0 | 0.00 | 0.00 | 0.00 | 77 | 1016.0 |
| 20260502101333 | 43 | 49 | 4.0 | 11.0 | 0.00 | 0.00 | 0.00 | 77 | 1016.0 |
| 20260502101305 | 43 | 66 | 4.0 | 13.0 | 0.00 | 0.00 | 0.00 | 77 | 1016.1 |
| 20260502101255 | 43 | 39 | 4.0 | 13.0 | 0.00 | 0.00 | 0.00 | 77 | 1016.0 |
| 20260502101035 | 43 | 35 | 4.0 | 13.0 | 0.00 | 0.00 | 0.00 | 77 | 1016.1 |
| 20260502100934 | 43 | 56 | 4.0 | 13.0 | 0.00 | 0.00 | 0.00 | 77 | 1016.1 |
| 20260502100833 | 43 | 28 | 4.0 | 14.0 | 0.00 | 0.00 | 0.00 | 76 | 1016.1 |
| 20260502100733 | 43 | 40 | 4.0 | 14.0 | 0.00 | 0.00 | 0.00 | 76 | 1016.1 |
| 20260502100634 | 43 | 85 | 4.0 | 14.0 | 0.00 | 0.00 | 0.00 | 76 | 1016.0 |
| 20260502100534 | 43 | 39 | 4.0 | 14.0 | 0.00 | 0.00 | 0.00 | 76 | 1016.0 |
| 20260502100434 | 43 | 57 | 5.0 | 14.0 | 0.00 | 0.00 | 0.00 | 76 | 1016.0 |
| 20260502100410 | 43 | 49 | 5.0 | 14.0 | 0.00 | 0.00 | 0.00 | 76 | 1015.9 |
| 20260502100358 | 43 | 13 | 5.0 | 14.0 | 0.00 | 0.00 | 0.00 | 76 | 1016.0 |
| 20260502100133 | 43 | 65 | 5.0 | 14.0 | 0.00 | 0.00 | 0.00 | 76 | 1015.9 |
| 20260502091505 | 44 | 76 | 5.0 | 13.0 | 0.00 | 0.00 | 0.00 | 74 | 1015.8 |
| 20260502091405 | 44 | 28 | 5.0 | 13.0 | 0.00 | 0.00 | 0.00 | 74 | 1015.7 |
| 20260502091303 | 44 | 61 | 5.0 | 14.0 | 0.00 | 0.00 | 0.00 | 74 | 1015.7 |
| 20260502091218 | 44 | 50 | 5.0 | 14.0 | 0.00 | 0.00 | 0.00 | 74 | 1015.7 |
| 20260502091213 | 44 | 63 | 5.0 | 14.0 | 0.00 | 0.00 | 0.00 | 74 | 1015.6 |
| 20260502091200 | 44 | 17 | 5.0 | 14.0 | 0.00 | 0.00 | 0.00 | 74 | 1015.7 |
| 20260502091137 | 44 | 67 | 5.0 | 14.0 | 0.00 | 0.00 | 0.00 | 75 | 1015.7 |
| 20260502090753 | 44 | 62 | 6.0 | 14.0 | 0.00 | 0.00 | 0.00 | 74 | 1015.6 |
| 20260502090651 | 44 | 60 | 6.0 | 14.0 | 0.00 | 0.00 | 0.00 | 74 | 1015.6 |
| 20260502090552 | 44 | 62 | 6.0 | 14.0 | 0.00 | 0.00 | 0.00 | 74 | 1015.6 |
| 20260502090452 | 44 | 34 | 5.0 | 14.0 | 0.00 | 0.00 | 0.00 | 74 | 1015.6 |
| 20260502090351 | 44 | 30 | 5.0 | 14.0 | 0.00 | 0.00 | 0.00 | 74 | 1015.6 |
| 20260502090251 | 44 | 52 | 5.0 | 14.0 | 0.00 | 0.00 | 0.00 | 74 | 1015.7 |
| 20260502090151 | 44 | 61 | 5.0 | 14.0 | 0.00 | 0.00 | 0.00 | 74 | 1015.7 |
| 20260502071506 | 45 | 54 | 7.0 | 19.0 | 0.00 | 0.00 | 0.00 | 69 | 1016.7 |
| 20260502071359 | 45 | 67 | 7.0 | 19.0 | 0.00 | 0.00 | 0.00 | 70 | 1016.7 |
| 20260502071258 | 45 | 36 | 7.0 | 19.0 | 0.00 | 0.00 | 0.00 | 69 | 1016.7 |
| 20260502071200 | 45 | 71 | 7.0 | 19.0 | 0.00 | 0.00 | 0.00 | 69 | 1016.8 |
| 20260502071100 | 45 | 59 | 7.0 | 19.0 | 0.00 | 0.00 | 0.00 | 69 | 1016.7 |
| 20260502071000 | 45 | 51 | 7.0 | 19.0 | 0.00 | 0.00 | 0.00 | 69 | 1016.7 |
| 20260502070850 | 45 | 59 | 7.0 | 17.0 | 0.00 | 0.00 | 0.00 | 70 | 1016.7 |
| 20260502070821 | 45 | 21 | 8.0 | 17.0 | 0.00 | 0.00 | 0.00 | 70 | 1016.7 |
| 20260502070812 | 45 | 61 | 7.0 | 17.0 | 0.00 | 0.00 | 0.00 | 69 | 1016.7 |
| 20260502070622 | 45 | 16 | 8.0 | 17.0 | 0.00 | 0.00 | 0.00 | 68 | 1016.7 |
| 20260502070611 | 45 | 59 | 8.0 | 17.0 | 0.00 | 0.00 | 0.00 | 69 | 1016.7 |
| 20260502070416 | 45 | 33 | 8.0 | 17.0 | 0.00 | 0.00 | 0.00 | 69 | 1016.8 |
| 20260502070406 | 45 | 68 | 8.0 | 17.0 | 0.00 | 0.00 | 0.00 | 69 | 1016.8 |
| 20260502070144 | 45 | 33 | 8.0 | 17.0 | 0.00 | 0.00 | 0.00 | 69 | 1016.7 |
| 20260502070118 | 45 | 66 | 8.0 | 17.0 | 0.00 | 0.00 | 0.00 | 69 | 1016.9 |
| 20260502070106 | 45 | 69 | 8.0 | 17.0 | 0.00 | 0.00 | 0.00 | 70 | 1016.8 |
| 20260502065838 | 45 | 10 | 8.0 | 17.0 | 0.00 | 0.00 | 0.00 | 67 | 1016.9 |
| 20260502065738 | 45 | 36 | 8.0 | 17.0 | 0.00 | 0.00 | 0.00 | 69 | 1016.9 |
| 20260502065638 | 45 | 65 | 8.0 | 17.0 | 0.00 | 0.00 | 0.00 | 68 | 1016.8 |
| 20260502065537 | 45 | 53 | 8.0 | 17.0 | 0.00 | 0.00 | 0.00 | 67 | 1016.8 |
| 20260502065438 | 45 | 17 | 8.0 | 17.0 | 0.00 | 0.00 | 0.00 | 68 | 1016.8 |
| 20260502065324 | 45 | 55 | 8.0 | 15.0 | 0.00 | 0.00 | 0.00 | 69 | 1016.7 |
| 20260502065224 | 45 | 45 | 7.0 | 15.0 | 0.00 | 0.00 | 0.00 | 68 | 1016.8 |
| 20260502065124 | 45 | 42 | 7.0 | 15.0 | 0.00 | 0.00 | 0.00 | 68 | 1016.7 |
| 20260502065025 | 45 | 63 | 7.0 | 15.0 | 0.00 | 0.00 | 0.00 | 69 | 1016.7 |
| 20260502064923 | 45 | 60 | 7.0 | 15.0 | 0.00 | 0.00 | 0.00 | 68 | 1016.7 |
| 20260502064849 | 45 | 54 | 7.0 | 15.0 | 0.00 | 0.00 | 0.00 | 68 | 1016.7 |
| 20260502064839 | 45 | 15 | 7.0 | 15.0 | 0.00 | 0.00 | 0.00 | 68 | 1016.8 |
| 20260502064618 | 45 | 76 | 7.0 | 15.0 | 0.00 | 0.00 | 0.00 | 68 | 1016.8 |
| 20260502064517 | 45 | 56 | 6.0 | 15.0 | 0.00 | 0.00 | 0.00 | 68 | 1016.8 |
| 20260502064418 | 45 | 62 | 6.0 | 17.0 | 0.00 | 0.00 | 0.00 | 68 | 1016.9 |
| 20260502064312 | 45 | 66 | 6.0 | 17.0 | 0.00 | 0.00 | 0.00 | 67 | 1016.8 |
| 20260502064212 | 45 | 60 | 7.0 | 17.0 | 0.00 | 0.00 | 0.00 | 67 | 1016.8 |
| 20260502064113 | 46 | 54 | 7.0 | 17.0 | 0.00 | 0.00 | 0.00 | 67 | 1016.8 |
| 20260502064012 | 46 | 60 | 7.0 | 18.0 | 0.00 | 0.00 | 0.00 | 68 | 1016.8 |
| 20260502063912 | 46 | 62 | 7.0 | 18.0 | 0.00 | 0.00 | 0.00 | 68 | 1016.8 |
| 20260502063802 | 46 | 44 | 7.0 | 18.0 | 0.00 | 0.00 | 0.00 | 67 | 1016.8 |
| 20260502063702 | 46 | 39 | 7.0 | 18.0 | 0.00 | 0.00 | 0.00 | 66 | 1016.8 |
| 20260502063602 | 46 | 36 | 7.0 | 18.0 | 0.00 | 0.00 | 0.00 | 67 | 1016.9 |
| 20260502063500 | 46 | 48 | 7.0 | 18.0 | 0.00 | 0.00 | 0.00 | 66 | 1016.8 |
| 20260502063430 | 46 | 41 | 6.0 | 18.0 | 0.00 | 0.00 | 0.00 | 66 | 1016.8 |
| 20260502063420 | 46 | 20 | 7.0 | 18.0 | 0.00 | 0.00 | 0.00 | 66 | 1016.8 |
| 20260502063156 | 46 | 54 | 7.0 | 18.0 | 0.00 | 0.00 | 0.00 | 66 | 1016.8 |
| 20260502063057 | 46 | 34 | 6.0 | 18.0 | 0.00 | 0.00 | 0.00 | 67 | 1016.9 |
| 20260502062956 | 46 | 50 | 6.0 | 15.0 | 0.00 | 0.00 | 0.00 | 66 | 1016.8 |
| 20260502062856 | 46 | 60 | 7.0 | 15.0 | 0.00 | 0.00 | 0.00 | 66 | 1016.8 |
| 20260502062750 | 46 | 57 | 6.0 | 15.0 | 0.00 | 0.00 | 0.00 | 66 | 1016.8 |
| 20260502062650 | 46 | 64 | 6.0 | 15.0 | 0.00 | 0.00 | 0.00 | 67 | 1016.7 |
| 20260502062550 | 46 | 50 | 7.0 | 15.0 | 0.00 | 0.00 | 0.00 | 67 | 1016.7 |
| 20260502062451 | 46 | 62 | 7.0 | 15.0 | 0.00 | 0.00 | 0.00 | 67 | 1016.8 |
| 20260502062350 | 46 | 71 | 7.0 | 15.0 | 0.00 | 0.00 | 0.00 | 66 | 1016.7 |
| 20260502062241 | 46 | 65 | 6.0 | 15.0 | 0.00 | 0.00 | 0.00 | 67 | 1016.9 |
| 20260502062138 | 46 | 59 | 7.0 | 14.0 | 0.00 | 0.00 | 0.00 | 66 | 1016.9 |
| 20260502062037 | 46 | 35 | 7.0 | 14.0 | 0.00 | 0.00 | 0.00 | 65 | 1016.8 |
| 20260502061938 | 46 | 96 | 7.0 | 18.0 | 0.00 | 0.00 | 0.00 | 65 | 1016.8 |
| 20260502061837 | 46 | 42 | 7.0 | 20.0 | 0.00 | 0.00 | 0.00 | 66 | 1016.8 |
| 20260502061808 | 46 | 42 | 7.0 | 20.0 | 0.00 | 0.00 | 0.00 | 66 | 1016.8 |
| 20260502061757 | 46 | 30 | 7.0 | 20.0 | 0.00 | 0.00 | 0.00 | 66 | 1016.8 |
| 20260502061538 | 46 | 61 | 7.0 | 20.0 | 0.00 | 0.00 | 0.00 | 66 | 1016.8 |
| 20260502061438 | 46 | 51 | 7.0 | 20.0 | 0.00 | 0.00 | 0.00 | 66 | 1016.8 |
| 20260502061418 | 46 | 63 | 7.0 | 20.0 | 0.00 | 0.00 | 0.00 | 66 | 1016.7 |
| 20260502061352 | 46 | 57 | 7.0 | 20.0 | 0.00 | 0.00 | 0.00 | 65 | 1016.7 |
| 20260502061337 | 46 | 43 | 6.0 | 20.0 | 0.00 | 0.00 | 0.00 | 66 | 1016.7 |
| 20260502061316 | 46 | 59 | 7.0 | 20.0 | 0.00 | 0.00 | 0.00 | 66 | 1016.7 |
| 20260502061010 | 46 | 59 | 7.0 | 17.0 | 0.00 | 0.00 | 0.00 | 66 | 1016.8 |
| 20260502061000 | 46 | 32 | 7.0 | 20.0 | 0.00 | 0.00 | 0.00 | 66 | 1016.7 |
| 20260502060812 | 46 | 38 | 7.0 | 18.0 | 0.00 | 0.00 | 0.00 | 66 | 1016.7 |
| 20260502060801 | 46 | 56 | 7.0 | 17.0 | 0.00 | 0.00 | 0.00 | 66 | 1016.7 |
| 20260502060537 | 46 | 40 | 7.0 | 18.0 | 0.00 | 0.00 | 0.00 | 66 | 1016.8 |
| 20260502060438 | 46 | 73 | 7.0 | 18.0 | 0.00 | 0.00 | 0.00 | 66 | 1016.8 |
| 20260502060338 | 46 | 47 | 7.0 | 18.0 | 0.00 | 0.00 | 0.00 | 65 | 1016.8 |
| 20260502060238 | 46 | 49 | 7.0 | 18.0 | 0.00 | 0.00 | 0.00 | 65 | 1016.8 |
| 20260502060138 | 46 | 40 | 7.0 | 18.0 | 0.00 | 0.00 | 0.00 | 65 | 1016.8 |
| 20260502060035 | 46 | 52 | 7.0 | 18.0 | 0.00 | 0.00 | 0.00 | 66 | 1016.8 |
| 20260502055934 | 46 | 52 | 7.0 | 18.0 | 0.00 | 0.00 | 0.00 | 66 | 1016.9 |
| 20260502055835 | 46 | 55 | 7.0 | 18.0 | 0.00 | 0.00 | 0.00 | 66 | 1016.9 |
| 20260502055808 | 46 | 26 | 7.0 | 16.0 | 0.00 | 0.00 | 0.00 | 66 | 1016.8 |
| 20260502055757 | 46 | 36 | 7.0 | 18.0 | 0.00 | 0.00 | 0.00 | 67 | 1016.9 |
| 20260502055533 | 46 | 46 | 7.0 | 16.0 | 0.00 | 0.00 | 0.00 | 66 | 1016.8 |
| 20260502055434 | 46 | 63 | 7.0 | 16.0 | 0.00 | 0.00 | 0.00 | 67 | 1016.9 |
| 20260502055332 | 46 | 34 | 7.0 | 16.0 | 0.00 | 0.00 | 0.00 | 67 | 1016.9 |
| 20260502055232 | 46 | 53 | 7.0 | 16.0 | 0.00 | 0.00 | 0.00 | 66 | 1017.0 |
| 20260502055135 | 46 | 342 | 7.0 | 16.0 | 0.00 | 0.00 | 0.00 | 66 | 1017.0 |
| 20260502055045 | 46 | 46 | 7.0 | 16.0 | 0.00 | 0.00 | 0.00 | 67 | 1017.0 |
| 20260502055034 | 46 | 40 | 7.0 | 16.0 | 0.00 | 0.00 | 0.00 | 66 | 1017.0 |
| 20260502055026 | 46 | 81 | 7.0 | 15.0 | 0.00 | 0.00 | 0.00 | 67 | 1016.9 |
| 20260502055006 | 46 | 64 | 7.0 | 16.0 | 0.00 | 0.00 | 0.00 | 66 | 1017.0 |
| 20260502054628 | 46 | 46 | 7.0 | 15.0 | 0.00 | 0.00 | 0.00 | 66 | 1017.0 |
| 20260502054527 | 46 | 55 | 7.0 | 15.0 | 0.00 | 0.00 | 0.00 | 66 | 1017.0 |
| 20260502054428 | 46 | 15 | 7.0 | 15.0 | 0.00 | 0.00 | 0.00 | 65 | 1016.9 |
| 20260502054322 | 46 | 36 | 7.0 | 15.0 | 0.00 | 0.00 | 0.00 | 65 | 1016.9 |
| 20260502054222 | 46 | 69 | 7.0 | 16.0 | 0.00 | 0.00 | 0.00 | 66 | 1016.9 |
| 20260502054122 | 46 | 62 | 7.0 | 16.0 | 0.00 | 0.00 | 0.00 | 66 | 1017.0 |
| 20260502054024 | 46 | 28 | 6.0 | 16.0 | 0.00 | 0.00 | 0.00 | 66 | 1017.0 |
| 20260502054017 | 46 | 355 | 6.0 | 16.0 | 0.00 | 0.00 | 0.00 | 67 | 1017.1 |
| 20260502053958 | 46 | 57 | 6.0 | 16.0 | 0.00 | 0.00 | 0.00 | 66 | 1017.1 |
| 20260502053942 | 46 | 53 | 6.0 | 16.0 | 0.00 | 0.00 | 0.00 | 66 | 1017.1 |
| 20260502053615 | 46 | 49 | 6.0 | 16.0 | 0.00 | 0.00 | 0.00 | 66 | 1017.0 |
| 20260502053556 | 46 | 59 | 6.0 | 13.0 | 0.00 | 0.00 | 0.00 | 66 | 1017.1 |
| 20260502053551 | 46 | 67 | 6.0 | 13.0 | 0.00 | 0.00 | 0.00 | 66 | 1017.1 |
| 20260502053545 | 46 | 44 | 6.0 | 13.0 | 0.00 | 0.00 | 0.00 | 66 | 1017.1 |
| 20260502053531 | 46 | 55 | 6.0 | 16.0 | 0.00 | 0.00 | 0.00 | 66 | 1017.1 |
| 20260502053512 | 46 | 54 | 6.0 | 16.0 | 0.00 | 0.00 | 0.00 | 67 | 1017.0 |
| 20260502053029 | 46 | 63 | 6.0 | 12.0 | 0.00 | 0.00 | 0.00 | 67 | 1017.0 |
| 20260502053024 | 46 | 49 | 5.0 | 14.0 | 0.00 | 0.00 | 0.00 | 67 | 1017.1 |
| 20260502053013 | 46 | 34 | 6.0 | 13.0 | 0.00 | 0.00 | 0.00 | 66 | 1017.1 |
| 20260502052952 | 46 | 68 | 5.0 | 12.0 | 0.00 | 0.00 | 0.00 | 66 | 1017.1 |
| 20260502052611 | 46 | 53 | 6.0 | 14.0 | 0.00 | 0.00 | 0.00 | 67 | 1017.1 |
| 20260502052511 | 46 | 150 | 5.0 | 14.0 | 0.00 | 0.00 | 0.00 | 66 | 1017.0 |
| 20260502052410 | 46 | 34 | 6.0 | 14.0 | 0.00 | 0.00 | 0.00 | 66 | 1017.1 |
| 20260502052341 | 46 | 75 | 6.0 | 14.0 | 0.00 | 0.00 | 0.00 | 67 | 1016.9 |
| 20260502052324 | 46 | 78 | 6.0 | 14.0 | 0.00 | 0.00 | 0.00 | 66 | 1017.0 |
| 20260502052255 | 46 | 61 | 6.0 | 14.0 | 0.00 | 0.00 | 0.00 | 67 | 1016.9 |
| 20260502052008 | 46 | 36 | 6.0 | 14.0 | 0.00 | 0.00 | 0.00 | 66 | 1016.9 |
| 20260502051906 | 46 | 57 | 6.0 | 14.0 | 0.00 | 0.00 | 0.00 | 66 | 1017.0 |
| 20260502051808 | 46 | 47 | 6.0 | 13.0 | 0.00 | 0.00 | 0.00 | 67 | 1016.9 |
| 20260502051739 | 46 | 55 | 6.0 | 13.0 | 0.00 | 0.00 | 0.00 | 65 | 1017.0 |
| 20260502051728 | 46 | 44 | 6.0 | 13.0 | 0.00 | 0.00 | 0.00 | 66 | 1016.9 |
| 20260502051506 | 46 | 41 | 6.0 | 13.0 | 0.00 | 0.00 | 0.00 | 65 | 1017.0 |
| 20260502051407 | 46 | 74 | 6.0 | 13.0 | 0.00 | 0.00 | 0.00 | 65 | 1016.9 |
| 20260502051306 | 46 | 34 | 6.0 | 13.0 | 0.00 | 0.00 | 0.00 | 66 | 1016.9 |
| 20260502051207 | 46 | 45 | 6.0 | 13.0 | 0.00 | 0.00 | 0.00 | 65 | 1016.9 |
| 20260502051108 | 46 | 42 | 6.0 | 13.0 | 0.00 | 0.00 | 0.00 | 65 | 1016.9 |
| 20260502051008 | 46 | 65 | 6.0 | 14.0 | 0.00 | 0.00 | 0.00 | 65 | 1016.8 |
| 20260502050908 | 46 | 58 | 6.0 | 17.0 | 0.00 | 0.00 | 0.00 | 65 | 1016.8 |
| 20260502050808 | 46 | 61 | 6.0 | 17.0 | 0.00 | 0.00 | 0.00 | 65 | 1016.8 |
| 20260502050707 | 46 | 62 | 6.0 | 17.0 | 0.00 | 0.00 | 0.00 | 65 | 1016.9 |
| 20260502050607 | 46 | 55 | 7.0 | 17.0 | 0.00 | 0.00 | 0.00 | 65 | 1016.9 |
| 20260502050508 | 46 | 57 | 7.0 | 17.0 | 0.00 | 0.00 | 0.00 | 65 | 1016.8 |
| 20260502050407 | 47 | 49 | 7.0 | 17.0 | 0.00 | 0.00 | 0.00 | 65 | 1016.8 |
| 20260502050308 | 47 | 46 | 7.0 | 17.0 | 0.00 | 0.00 | 0.00 | 64 | 1016.8 |
| 20260502050206 | 46 | 71 | 7.0 | 17.0 | 0.00 | 0.00 | 0.00 | 64 | 1016.8 |
| 20260502050106 | 46 | 31 | 7.0 | 17.0 | 0.00 | 0.00 | 0.00 | 64 | 1016.7 |
| 20260502050005 | 46 | 24 | 7.0 | 17.0 | 0.00 | 0.00 | 0.00 | 65 | 1016.8 |
| 20260502045906 | 47 | 78 | 7.0 | 15.0 | 0.00 | 0.00 | 0.00 | 64 | 1016.8 |
| 20260502045803 | 47 | 51 | 7.0 | 14.0 | 0.00 | 0.00 | 0.00 | 64 | 1016.9 |
| 20260502045704 | 47 | 36 | 7.0 | 14.0 | 0.00 | 0.00 | 0.00 | 64 | 1016.7 |
| 20260502045604 | 47 | 108 | 7.0 | 14.0 | 0.00 | 0.00 | 0.00 | 64 | 1016.7 |
| 20260502045504 | 47 | 69 | 6.0 | 14.0 | 0.00 | 0.00 | 0.00 | 64 | 1016.7 |
| 20260502045405 | 47 | 74 | 6.0 | 14.0 | 0.00 | 0.00 | 0.00 | 63 | 1016.8 |
| 20260502045333 | 47 | 58 | 6.0 | 15.0 | 0.00 | 0.00 | 0.00 | 63 | 1016.9 |
| 20260502045320 | 47 | 75 | 6.0 | 14.0 | 0.00 | 0.00 | 0.00 | 63 | 1016.8 |
| 20260502045256 | 47 | 23 | 6.0 | 13.0 | 0.00 | 0.00 | 0.00 | 64 | 1016.9 |
| 20260502045142 | 47 | 53 | 6.0 | 15.0 | 0.00 | 0.00 | 0.00 | 63 | 1016.9 |
| 20260502045136 | 47 | 63 | 6.0 | 15.0 | 0.00 | 0.00 | 0.00 | 64 | 1016.9 |
| 20260502045120 | 47 | 46 | 6.0 | 13.0 | 0.00 | 0.00 | 0.00 | 63 | 1017.0 |
| 20260502045101 | 47 | 61 | 6.0 | 13.0 | 0.00 | 0.00 | 0.00 | 63 | 1016.9 |
| 20260502044558 | 47 | 46 | 6.0 | 15.0 | 0.00 | 0.00 | 0.00 | 63 | 1016.9 |
| 20260502044516 | 47 | 19 | 7.0 | 16.0 | 0.00 | 0.00 | 0.00 | 64 | 1016.9 |
| 20260502044510 | 47 | 69 | 7.0 | 16.0 | 0.00 | 0.00 | 0.00 | 63 | 1016.9 |
| 20260502044459 | 47 | 56 | 7.0 | 16.0 | 0.00 | 0.00 | 0.00 | 63 | 1016.8 |
| 20260502044438 | 47 | 57 | 7.0 | 16.0 | 0.00 | 0.00 | 0.00 | 63 | 1016.9 |
| 20260502044058 | 47 | 38 | 7.0 | 16.0 | 0.00 | 0.00 | 0.00 | 63 | 1016.8 |
| 20260502043959 | 47 | 58 | 6.0 | 16.0 | 0.00 | 0.00 | 0.00 | 63 | 1016.9 |
| 20260502043939 | 47 | 57 | 6.0 | 16.0 | 0.00 | 0.00 | 0.00 | 63 | 1016.9 |
| 20260502043926 | 47 | 57 | 6.0 | 16.0 | 0.00 | 0.00 | 0.00 | 63 | 1016.9 |
| 20260502043659 | 47 | 46 | 6.0 | 16.0 | 0.00 | 0.00 | 0.00 | 62 | 1016.9 |
| 20260502043559 | 47 | 71 | 5.0 | 16.0 | 0.00 | 0.00 | 0.00 | 62 | 1016.9 |
| 20260502043452 | 47 | 63 | 5.0 | 13.0 | 0.00 | 0.00 | 0.00 | 63 | 1016.9 |
| 20260502043430 | 47 | 49 | 5.0 | 13.0 | 0.00 | 0.00 | 0.00 | 63 | 1017.0 |
| 20260502043419 | 47 | 44 | 5.0 | 13.0 | 0.00 | 0.00 | 0.00 | 63 | 1017.0 |
| 20260502043207 | 47 | 40 | 6.0 | 19.0 | 0.00 | 0.00 | 0.00 | 62 | 1016.9 |
| 20260502043155 | 47 | 80 | 6.0 | 13.0 | 0.00 | 0.00 | 0.00 | 63 | 1016.9 |
| 20260502043149 | 47 | 75 | 5.0 | 19.0 | 0.00 | 0.00 | 0.00 | 62 | 1016.9 |
| 20260502043128 | 47 | 60 | 6.0 | 13.0 | 0.00 | 0.00 | 0.00 | 63 | 1017.0 |
| 20260502042747 | 47 | 61 | 5.0 | 19.0 | 0.00 | 0.00 | 0.00 | 62 | 1016.9 |
| 20260502042719 | 47 | 41 | 5.0 | 19.0 | 0.00 | 0.00 | 0.00 | 62 | 1016.9 |
| 20260502042708 | 47 | 35 | 5.0 | 19.0 | 0.00 | 0.00 | 0.00 | 62 | 1016.9 |
| 20260502042440 | 47 | 50 | 6.0 | 19.0 | 0.00 | 0.00 | 0.00 | 62 | 1016.9 |
| 20260502042340 | 47 | 61 | 5.0 | 19.0 | 0.00 | 0.00 | 0.00 | 62 | 1016.9 |
| 20260502042239 | 47 | 50 | 5.0 | 19.0 | 0.00 | 0.00 | 0.00 | 62 | 1016.8 |
| 20260502042140 | 47 | 13 | 5.0 | 19.0 | 0.00 | 0.00 | 0.00 | 62 | 1016.9 |
| 20260502042102 | 47 | 48 | 5.0 | 14.0 | 0.00 | 0.00 | 0.00 | 62 | 1017.0 |
| 20260502042047 | 47 | 71 | 5.0 | 12.0 | 0.00 | 0.00 | 0.00 | 62 | 1016.9 |
| 20260502042026 | 47 | 51 | 5.0 | 12.0 | 0.00 | 0.00 | 0.00 | 63 | 1016.9 |
| 20260502041903 | 47 | 27 | 5.0 | 12.0 | 0.00 | 0.00 | 0.00 | 62 | 1016.9 |
| 20260502041639 | 47 | 19 | 5.0 | 14.0 | 0.00 | 0.00 | 0.00 | 62 | 1016.9 |
| 20260502041550 | 47 | 43 | 5.0 | 14.0 | 0.00 | 0.00 | 0.00 | 62 | 1016.9 |
| 20260502041539 | 47 | 57 | 5.0 | 14.0 | 0.00 | 0.00 | 0.00 | 62 | 1017.0 |
| 20260502041532 | 47 | 81 | 6.0 | 14.0 | 0.00 | 0.00 | 0.00 | 61 | 1016.9 |
| 20260502041514 | 47 | 80 | 5.0 | 14.0 | 0.00 | 0.00 | 0.00 | 61 | 1017.0 |
| 20260502041134 | 47 | 20 | 5.0 | 14.0 | 0.00 | 0.00 | 0.00 | 62 | 1016.9 |
| 20260502041034 | 48 | 75 | 6.0 | 14.0 | 0.00 | 0.00 | 0.00 | 62 | 1016.9 |
| 20260502040934 | 48 | 53 | 6.0 | 17.0 | 0.00 | 0.00 | 0.00 | 61 | 1016.8 |
| 20260502040834 | 48 | 65 | 6.0 | 17.0 | 0.00 | 0.00 | 0.00 | 62 | 1016.9 |
| 20260502040733 | 48 | 42 | 6.0 | 17.0 | 0.00 | 0.00 | 0.00 | 61 | 1016.8 |
| 20260502040635 | 48 | 78 | 6.0 | 17.0 | 0.00 | 0.00 | 0.00 | 61 | 1016.9 |
| 20260502040535 | 48 | 9 | 6.0 | 17.0 | 0.00 | 0.00 | 0.00 | 61 | 1016.9 |
| 20260502040435 | 48 | 38 | 6.0 | 17.0 | 0.00 | 0.00 | 0.00 | 61 | 1016.8 |
| 20260502040334 | 48 | 5 | 6.0 | 17.0 | 0.00 | 0.00 | 0.00 | 61 | 1016.9 |
| 20260502040234 | 48 | 63 | 6.0 | 17.0 | 0.00 | 0.00 | 0.00 | 61 | 1016.9 |
| 20260502040134 | 48 | 25 | 6.0 | 17.0 | 0.00 | 0.00 | 0.00 | 61 | 1016.9 |
| 20260502040034 | 48 | 71 | 6.0 | 17.0 | 0.00 | 0.00 | 0.00 | 60 | 1017.0 |
| 20260502035934 | 48 | 44 | 6.0 | 17.0 | 0.00 | 0.00 | 0.00 | 61 | 1017.0 |
| 20260502035834 | 48 | 323 | 6.0 | 15.0 | 0.00 | 0.00 | 0.00 | 60 | 1016.9 |
| 20260502035733 | 48 | 10 | 5.0 | 15.0 | 0.00 | 0.00 | 0.00 | 61 | 1017.0 |
| 20260502035634 | 48 | 15 | 5.0 | 15.0 | 0.00 | 0.00 | 0.00 | 61 | 1017.0 |
| 20260502035535 | 48 | 82 | 5.0 | 15.0 | 0.00 | 0.00 | 0.00 | 61 | 1016.9 |
| 20260502035435 | 48 | 25 | 5.0 | 15.0 | 0.00 | 0.00 | 0.00 | 60 | 1017.0 |
| 20260502035329 | 48 | 30 | 6.0 | 15.0 | 0.00 | 0.00 | 0.00 | 61 | 1016.9 |
| 20260502035229 | 48 | 43 | 5.0 | 15.0 | 0.00 | 0.00 | 0.00 | 60 | 1017.0 |
| 20260502035129 | 48 | 84 | 5.0 | 12.0 | 0.00 | 0.00 | 0.00 | 60 | 1017.0 |
| 20260502035104 | 48 | 72 | 5.0 | 16.0 | 0.00 | 0.00 | 0.00 | 60 | 1017.0 |
| 20260502035052 | 48 | 0 | 5.0 | 13.0 | 0.00 | 0.00 | 0.00 | 60 | 1017.0 |
| 20260502034829 | 48 | 338 | 5.0 | 16.0 | 0.00 | 0.00 | 0.00 | 60 | 1017.1 |
| 20260502034730 | 48 | 53 | 5.0 | 16.0 | 0.00 | 0.00 | 0.00 | 60 | 1017.1 |
| 20260502034700 | 48 | 61 | 4.0 | 16.0 | 0.00 | 0.00 | 0.00 | 60 | 1017.2 |
| 20260502034649 | 48 | 46 | 5.0 | 16.0 | 0.00 | 0.00 | 0.00 | 60 | 1017.2 |
| 20260502034427 | 48 | 58 | 5.0 | 16.0 | 0.00 | 0.00 | 0.00 | 60 | 1017.2 |
| 20260502034330 | 48 | 67 | 4.0 | 16.0 | 0.00 | 0.00 | 0.00 | 60 | 1017.2 |
| 20260502034322 | 48 | 60 | 4.0 | 13.0 | 0.00 | 0.00 | 0.00 | 60 | 1017.2 |
| 20260502034317 | 48 | 36 | 4.0 | 13.0 | 0.00 | 0.00 | 0.00 | 60 | 1017.3 |
| 20260502034257 | 48 | 61 | 4.0 | 16.0 | 0.00 | 0.00 | 0.00 | 60 | 1017.2 |
| 20260502034132 | 48 | 343 | 4.0 | 16.0 | 0.00 | 0.00 | 0.00 | 60 | 1017.3 |
| 20260502034109 | 48 | 40 | 4.0 | 16.0 | 0.00 | 0.00 | 0.00 | 60 | 1017.3 |
| 20260502033725 | 48 | 71 | 4.0 | 13.0 | 0.00 | 0.00 | 0.00 | 61 | 1017.3 |
| 20260502033626 | 48 | 15 | 4.0 | 13.0 | 0.00 | 0.00 | 0.00 | 60 | 1017.2 |
| 20260502033525 | 48 | 26 | 4.0 | 13.0 | 0.00 | 0.00 | 0.00 | 59 | 1017.2 |
| 20260502033425 | 48 | 17 | 4.0 | 13.0 | 0.00 | 0.00 | 0.00 | 59 | 1017.2 |
| 20260502033400 | 48 | 64 | 4.0 | 13.0 | 0.00 | 0.00 | 0.00 | 59 | 1017.4 |
| 20260502033350 | 48 | 51 | 4.0 | 13.0 | 0.00 | 0.00 | 0.00 | 59 | 1017.3 |
| 20260502033127 | 48 | 67 | 4.0 | 13.0 | 0.00 | 0.00 | 0.00 | 59 | 1017.4 |
| 20260502033026 | 48 | 23 | 4.0 | 11.0 | 0.00 | 0.00 | 0.00 | 59 | 1017.4 |
| 20260502032925 | 48 | 28 | 4.0 | 11.0 | 0.00 | 0.00 | 0.00 | 59 | 1017.4 |
| 20260502032855 | 48 | 63 | 5.0 | 15.0 | 0.00 | 0.00 | 0.00 | 59 | 1017.5 |
| 20260502032845 | 48 | 31 | 5.0 | 15.0 | 0.00 | 0.00 | 0.00 | 59 | 1017.4 |
| 20260502032625 | 48 | 318 | 5.0 | 15.0 | 0.00 | 0.00 | 0.00 | 58 | 1017.5 |
| 20260502032526 | 48 | 84 | 5.0 | 15.0 | 0.00 | 0.00 | 0.00 | 58 | 1017.5 |
| 20260502032425 | 48 | 52 | 5.0 | 15.0 | 0.00 | 0.00 | 0.00 | 58 | 1017.5 |
| 20260502032325 | 48 | 25 | 5.0 | 15.0 | 0.00 | 0.00 | 0.00 | 58 | 1017.4 |
| 20260502032225 | 48 | 98 | 5.0 | 15.0 | 0.00 | 0.00 | 0.00 | 58 | 1017.4 |
| 20260502032127 | 48 | 29 | 5.0 | 15.0 | 0.00 | 0.00 | 0.00 | 58 | 1017.6 |
| 20260502032023 | 48 | 61 | 5.0 | 15.0 | 0.00 | 0.00 | 0.00 | 58 | 1017.4 |
| 20260502031922 | 48 | 74 | 6.0 | 15.0 | 0.00 | 0.00 | 0.00 | 58 | 1017.4 |
| 20260502031822 | 48 | 20 | 5.0 | 14.0 | 0.00 | 0.00 | 0.00 | 58 | 1017.5 |
| 20260502031722 | 48 | 92 | 5.0 | 14.0 | 0.00 | 0.00 | 0.00 | 58 | 1017.5 |
| 20260502031622 | 48 | 80 | 5.0 | 13.0 | 0.00 | 0.00 | 0.00 | 58 | 1017.4 |
| 20260502031523 | 49 | 0 | 5.0 | 13.0 | 0.00 | 0.00 | 0.00 | 58 | 1017.4 |
| 20260502031422 | 49 | 44 | 5.0 | 13.0 | 0.00 | 0.00 | 0.00 | 58 | 1017.5 |
| 20260502031317 | 48 | 13 | 5.0 | 13.0 | 0.00 | 0.00 | 0.00 | 58 | 1017.5 |
| 20260502031217 | 48 | 59 | 5.0 | 13.0 | 0.00 | 0.00 | 0.00 | 58 | 1017.4 |
| 20260502031118 | 49 | 19 | 5.0 | 13.0 | 0.00 | 0.00 | 0.00 | 57 | 1017.5 |
| 20260502031018 | 49 | 39 | 5.0 | 13.0 | 0.00 | 0.00 | 0.00 | 57 | 1017.4 |
| 20260502030917 | 49 | 5 | 4.0 | 13.0 | 0.00 | 0.00 | 0.00 | 57 | 1017.4 |
| 20260502030858 | 49 | 46 | 4.0 | 13.0 | 0.00 | 0.00 | 0.00 | 58 | 1017.5 |
| 20260502030844 | 49 | 32 | 4.0 | 13.0 | 0.00 | 0.00 | 0.00 | 57 | 1017.4 |
| 20260502030617 | 49 | 74 | 4.0 | 16.0 | 0.00 | 0.00 | 0.00 | 58 | 1017.5 |
| 20260502030518 | 49 | 49 | 4.0 | 16.0 | 0.00 | 0.00 | 0.00 | 57 | 1017.4 |
| 20260502030419 | 49 | 22 | 4.0 | 16.0 | 0.00 | 0.00 | 0.00 | 57 | 1017.4 |
| 20260502030317 | 49 | 46 | 4.0 | 16.0 | 0.00 | 0.00 | 0.00 | 57 | 1017.5 |
| 20260502030217 | 49 | 90 | 4.0 | 16.0 | 0.00 | 0.00 | 0.00 | 57 | 1017.5 |
| 20260502030119 | 49 | 80 | 4.0 | 16.0 | 0.00 | 0.00 | 0.00 | 57 | 1017.5 |
| 20260502030017 | 49 | 35 | 4.0 | 16.0 | 0.00 | 0.00 | 0.00 | 57 | 1017.4 |
| 20260502025917 | 49 | 61 | 4.0 | 16.0 | 0.00 | 0.00 | 0.00 | 57 | 1017.4 |
| 20260502025816 | 49 | 11 | 4.0 | 16.0 | 0.00 | 0.00 | 0.00 | 57 | 1017.3 |
| 20260502025715 | 49 | 38 | 4.0 | 16.0 | 0.00 | 0.00 | 0.00 | 57 | 1017.3 |
| 20260502025616 | 49 | 57 | 4.0 | 11.0 | 0.00 | 0.00 | 0.00 | 58 | 1017.3 |
| 20260502025516 | 49 | 78 | 4.0 | 11.0 | 0.00 | 0.00 | 0.00 | 56 | 1017.3 |
| 20260502025412 | 49 | 30 | 3.0 | 11.0 | 0.00 | 0.00 | 0.00 | 57 | 1017.3 |
| 20260502025315 | 49 | 5 | 3.0 | 11.0 | 0.00 | 0.00 | 0.00 | 56 | 1017.3 |
| 20260502025214 | 49 | 67 | 3.0 | 11.0 | 0.00 | 0.00 | 0.00 | 56 | 1017.3 |
| 20260502025113 | 49 | 355 | 3.0 | 11.0 | 0.00 | 0.00 | 0.00 | 57 | 1017.2 |
| 20260502025013 | 49 | 48 | 3.0 | 10.0 | 0.00 | 0.00 | 0.00 | 57 | 1017.3 |
| 20260502024956 | 49 | 69 | 3.0 | 11.0 | 0.00 | 0.00 | 0.00 | 56 | 1017.2 |
| 20260502024950 | 49 | 341 | 3.0 | 11.0 | 0.00 | 0.00 | 0.00 | 56 | 1017.3 |
| 20260502024933 | 49 | 176 | 3.0 | 9.0 | 0.00 | 0.00 | 0.00 | 56 | 1017.3 |
| 20260502024915 | 49 | 166 | 3.0 | 11.0 | 0.00 | 0.00 | 0.00 | 56 | 1017.2 |
| 20260502024632 | 49 | 23 | 3.0 | 11.0 | 0.00 | 0.00 | 0.00 | 56 | 1017.2 |
| 20260502024409 | 49 | 337 | 4.0 | 11.0 | 0.00 | 0.00 | 0.00 | 56 | 1017.1 |
| 20260502024309 | 49 | 40 | 4.0 | 11.0 | 0.00 | 0.00 | 0.00 | 55 | 1017.2 |
| 20260502024210 | 49 | 16 | 4.0 | 11.0 | 0.00 | 0.00 | 0.00 | 55 | 1017.2 |
| 20260502024107 | 49 | 10 | 4.0 | 11.0 | 0.00 | 0.00 | 0.00 | 55 | 1017.1 |
| 20260502024007 | 49 | 63 | 4.0 | 11.0 | 0.00 | 0.00 | 0.00 | 55 | 1017.1 |
| 20260502023934 | 49 | 13 | 4.0 | 12.0 | 0.00 | 0.00 | 0.00 | 55 | 1017.0 |
| 20260502023925 | 49 | 159 | 4.0 | 11.0 | 0.00 | 0.00 | 0.00 | 55 | 1017.2 |
| 20260502023707 | 49 | 71 | 4.0 | 12.0 | 0.00 | 0.00 | 0.00 | 56 | 1017.1 |
| 20260502023606 | 49 | 346 | 4.0 | 12.0 | 0.00 | 0.00 | 0.00 | 56 | 1017.0 |
| 20260502023539 | 49 | 45 | 4.0 | 12.0 | 0.00 | 0.00 | 0.00 | 55 | 1017.1 |
| 20260502023526 | 49 | 55 | 4.0 | 12.0 | 0.00 | 0.00 | 0.00 | 55 | 1017.0 |
| 20260502023306 | 49 | 57 | 4.0 | 12.0 | 0.00 | 0.00 | 0.00 | 55 | 1017.1 |
| 20260502023202 | 49 | 340 | 4.0 | 12.0 | 0.00 | 0.00 | 0.00 | 55 | 1017.0 |
| 20260502023059 | 49 | 17 | 3.0 | 12.0 | 0.00 | 0.00 | 0.00 | 54 | 1017.1 |
| 20260502023016 | 49 | 9 | 3.0 | 8.0 | 0.00 | 0.00 | 0.00 | 54 | 1017.2 |
| 20260502023001 | 49 | 32 | 3.0 | 12.0 | 0.00 | 0.00 | 0.00 | 55 | 1017.1 |
| 20260502022954 | 49 | 80 | 3.0 | 11.0 | 0.00 | 0.00 | 0.00 | 55 | 1017.1 |
| 20260502022948 | 49 | 59 | 3.0 | 8.0 | 0.00 | 0.00 | 0.00 | 55 | 1017.2 |
| 20260502022930 | 49 | 340 | 3.0 | 12.0 | 0.00 | 0.00 | 0.00 | 55 | 1017.1 |
| 20260502022802 | 49 | 321 | 3.0 | 10.0 | 0.00 | 0.00 | 0.00 | 55 | 1017.2 |
| 20260502022755 | 49 | 340 | 3.0 | 8.0 | 0.00 | 0.00 | 0.00 | 54 | 1017.1 |
| 20260502022751 | 49 | 178 | 3.0 | 11.0 | 0.00 | 0.00 | 0.00 | 54 | 1017.1 |
| 20260502022730 | 49 | 325 | 3.0 | 10.0 | 0.00 | 0.00 | 0.00 | 54 | 1017.1 |
| 20260502022604 | 49 | 319 | 3.0 | 10.0 | 0.00 | 0.00 | 0.00 | 55 | 1017.1 |
| 20260502022542 | 49 | 38 | 3.0 | 9.0 | 0.00 | 0.00 | 0.00 | 54 | 1017.2 |
| 20260502022242 | 49 | 12 | 3.0 | 8.0 | 0.00 | 0.00 | 0.00 | 54 | 1017.2 |
| 20260502021739 | 49 | 70 | 3.0 | 11.0 | 0.00 | 0.00 | 0.00 | 54 | 1017.0 |
| 20260502021635 | 49 | 73 | 3.0 | 11.0 | 0.00 | 0.00 | 0.00 | 54 | 1017.0 |
| 20260502021535 | 49 | 50 | 3.0 | 11.0 | 0.00 | 0.00 | 0.00 | 54 | 1017.0 |
| 20260502021433 | 49 | 72 | 3.0 | 11.0 | 0.00 | 0.00 | 0.00 | 54 | 1017.0 |
| 20260502021333 | 49 | 21 | 3.0 | 11.0 | 0.00 | 0.00 | 0.00 | 54 | 1017.0 |
| 20260502021233 | 49 | 0 | 3.0 | 11.0 | 0.00 | 0.00 | 0.00 | 55 | 1017.0 |
| 20260502021205 | 49 | 24 | 3.0 | 11.0 | 0.00 | 0.00 | 0.00 | 54 | 1017.0 |
| 20260502021152 | 49 | 76 | 3.0 | 11.0 | 0.00 | 0.00 | 0.00 | 54 | 1017.0 |
| 20260502020928 | 49 | 5 | 3.0 | 11.0 | 0.00 | 0.00 | 0.00 | 54 | 1017.1 |
| 20260502020827 | 50 | 44 | 3.0 | 11.0 | 0.00 | 0.00 | 0.00 | 54 | 1017.0 |
| 20260502020731 | 50 | 71 | 3.0 | 11.0 | 0.00 | 0.00 | 0.00 | 55 | 1017.0 |
| 20260502020723 | 50 | 65 | 4.0 | 11.0 | 0.00 | 0.00 | 0.00 | 54 | 1017.0 |
| 20260502020719 | 50 | 46 | 4.0 | 11.0 | 0.00 | 0.00 | 0.00 | 54 | 1017.1 |
| 20260502020658 | 50 | 5 | 4.0 | 11.0 | 0.00 | 0.00 | 0.00 | 54 | 1017.1 |
| 20260502020354 | 50 | 17 | 4.0 | 8.0 | 0.00 | 0.00 | 0.00 | 54 | 1017.0 |
| 20260502020344 | 50 | 75 | 4.0 | 11.0 | 0.00 | 0.00 | 0.00 | 53 | 1017.0 |
| 20260502020122 | 50 | 63 | 4.0 | 8.0 | 0.00 | 0.00 | 0.00 | 54 | 1017.0 |
| 20260502020056 | 50 | 30 | 4.0 | 9.0 | 0.00 | 0.00 | 0.00 | 54 | 1016.9 |
| 20260502020045 | 50 | 41 | 4.0 | 8.0 | 0.00 | 0.00 | 0.00 | 54 | 1016.9 |
| 20260502015817 | 50 | 52 | 3.0 | 9.0 | 0.00 | 0.00 | 0.00 | 53 | 1017.0 |
| 20260502015718 | 50 | 86 | 3.0 | 9.0 | 0.00 | 0.00 | 0.00 | 53 | 1017.0 |
| 20260502015615 | 50 | 40 | 3.0 | 9.0 | 0.00 | 0.00 | 0.00 | 53 | 1017.0 |
| 20260502015515 | 50 | 47 | 3.0 | 9.0 | 0.00 | 0.00 | 0.00 | 53 | 1017.0 |
| 20260502015416 | 50 | 5 | 3.0 | 9.0 | 0.00 | 0.00 | 0.00 | 53 | 1017.0 |
| 20260502015316 | 50 | 78 | 3.0 | 11.0 | 0.00 | 0.00 | 0.00 | 53 | 1017.1 |
| 20260502015238 | 50 | 13 | 3.0 | 11.0 | 0.00 | 0.00 | 0.00 | 53 | 1017.0 |
| 20260502015225 | 50 | 334 | 3.0 | 11.0 | 0.00 | 0.00 | 0.00 | 53 | 1017.0 |
| 20260502015204 | 50 | 333 | 3.0 | 11.0 | 0.00 | 0.00 | 0.00 | 53 | 1017.0 |
| 20260502015040 | 50 | 0 | 3.0 | 11.0 | 0.00 | 0.00 | 0.00 | 54 | 1017.1 |
| 20260502014817 | 50 | 13 | 3.0 | 11.0 | 0.00 | 0.00 | 0.00 | 53 | 1017.0 |
| 20260502014715 | 50 | 0 | 3.0 | 11.0 | 0.00 | 0.00 | 0.00 | 53 | 1017.0 |
| 20260502014613 | 50 | 53 | 4.0 | 11.0 | 0.00 | 0.00 | 0.00 | 53 | 1017.0 |
| 20260502014546 | 50 | 76 | 4.0 | 11.0 | 0.00 | 0.00 | 0.00 | 53 | 1017.0 |
| 20260502014534 | 50 | 65 | 4.0 | 11.0 | 0.00 | 0.00 | 0.00 | 53 | 1016.9 |
| 20260502014310 | 50 | 34 | 4.0 | 11.0 | 0.00 | 0.00 | 0.00 | 54 | 1016.9 |
| 20260502014211 | 50 | 69 | 4.0 | 11.0 | 0.00 | 0.00 | 0.00 | 52 | 1017.0 |
| 20260502014110 | 50 | 5 | 4.0 | 11.0 | 0.00 | 0.00 | 0.00 | 53 | 1017.0 |
| 20260502014044 | 50 | 29 | 4.0 | 11.0 | 0.00 | 0.00 | 0.00 | 53 | 1016.9 |
| 20260502014032 | 50 | 70 | 4.0 | 11.0 | 0.00 | 0.00 | 0.00 | 53 | 1016.9 |
| 20260502013810 | 50 | 73 | 4.0 | 11.0 | 0.00 | 0.00 | 0.00 | 55 | 1016.9 |
| 20260502013710 | 50 | 53 | 4.0 | 11.0 | 0.00 | 0.00 | 0.00 | 53 | 1016.9 |
| 20260502013608 | 50 | 19 | 3.0 | 11.0 | 0.00 | 0.00 | 0.00 | 53 | 1017.0 |
| 20260502013508 | 50 | 42 | 4.0 | 10.0 | 0.00 | 0.00 | 0.00 | 52 | 1016.9 |
| 20260502013409 | 50 | 34 | 3.0 | 10.0 | 0.00 | 0.00 | 0.00 | 53 | 1016.9 |
| 20260502013309 | 50 | 44 | 3.0 | 10.0 | 0.00 | 0.00 | 0.00 | 52 | 1016.9 |
| 20260502013207 | 50 | 46 | 3.0 | 10.0 | 0.00 | 0.00 | 0.00 | 52 | 1016.9 |
| 20260502013106 | 50 | 321 | 4.0 | 12.0 | 0.00 | 0.00 | 0.00 | 53 | 1016.9 |
| 20260502013005 | 51 | 38 | 4.0 | 12.0 | 0.00 | 0.00 | 0.00 | 53 | 1016.9 |
| 20260502012904 | 51 | 331 | 4.0 | 12.0 | 0.00 | 0.00 | 0.00 | 53 | 1016.8 |
| 20260502012805 | 51 | 12 | 4.0 | 12.0 | 0.00 | 0.00 | 0.00 | 54 | 1016.9 |
| 20260502012706 | 51 | 61 | 5.0 | 12.0 | 0.00 | 0.00 | 0.00 | 54 | 1016.8 |
| 20260502012605 | 51 | 283 | 5.0 | 12.0 | 0.00 | 0.00 | 0.00 | 54 | 1016.8 |
| 20260502012503 | 51 | 74 | 5.0 | 12.0 | 0.00 | 0.00 | 0.00 | 54 | 1016.8 |
| 20260502012403 | 51 | 316 | 5.0 | 12.0 | 0.00 | 0.00 | 0.00 | 55 | 1016.9 |
| 20260502012306 | 51 | 315 | 5.0 | 12.0 | 0.00 | 0.00 | 0.00 | 52 | 1016.8 |
| 20260502012204 | 51 | 25 | 5.0 | 12.0 | 0.00 | 0.00 | 0.00 | 53 | 1016.8 |
| 20260502012104 | 51 | 13 | 5.0 | 12.0 | 0.00 | 0.00 | 0.00 | 53 | 1016.8 |
| 20260502012004 | 51 | 71 | 5.0 | 12.0 | 0.00 | 0.00 | 0.00 | 53 | 1016.8 |
| 20260502011904 | 51 | 17 | 5.0 | 12.0 | 0.00 | 0.00 | 0.00 | 53 | 1016.7 |
| 20260502011803 | 51 | 9 | 5.0 | 12.0 | 0.00 | 0.00 | 0.00 | 53 | 1016.7 |
| 20260502011701 | 51 | 42 | 5.0 | 12.0 | 0.00 | 0.00 | 0.00 | 52 | 1016.7 |
| 20260502011602 | 51 | 340 | 5.0 | 12.0 | 0.00 | 0.00 | 0.00 | 52 | 1016.7 |
| 20260502011501 | 51 | 15 | 5.0 | 12.0 | 0.00 | 0.00 | 0.00 | 54 | 1016.7 |
| 20260502011402 | 51 | 0 | 5.0 | 12.0 | 0.00 | 0.00 | 0.00 | 53 | 1016.8 |
| 20260502011305 | 51 | 63 | 5.0 | 12.0 | 0.00 | 0.00 | 0.00 | 53 | 1016.7 |
| 20260502011202 | 51 | 30 | 5.0 | 11.0 | 0.00 | 0.00 | 0.00 | 54 | 1016.9 |
| 20260502011101 | 51 | 343 | 5.0 | 11.0 | 0.00 | 0.00 | 0.00 | 53 | 1016.8 |
| 20260502011000 | 51 | 325 | 5.0 | 11.0 | 0.00 | 0.00 | 0.00 | 53 | 1016.8 |
| 20260502010907 | 51 | 5 | 5.0 | 11.0 | 0.00 | 0.00 | 0.00 | 53 | 1016.7 |
| 20260502010801 | 51 | 344 | 5.0 | 11.0 | 0.00 | 0.00 | 0.00 | 53 | 1016.8 |
| 20260502010735 | 51 | 42 | 5.0 | 13.0 | 0.00 | 0.00 | 0.00 | 52 | 1016.8 |
| 20260502010725 | 51 | 26 | 5.0 | 12.0 | 0.00 | 0.00 | 0.00 | 52 | 1016.8 |
| 20260502010501 | 51 | 5 | 5.0 | 13.0 | 0.00 | 0.00 | 0.00 | 53 | 1016.8 |
| 20260502010435 | 51 | 17 | 5.0 | 13.0 | 0.00 | 0.00 | 0.00 | 54 | 1016.8 |
| 20260502010423 | 51 | 13 | 5.0 | 13.0 | 0.00 | 0.00 | 0.00 | 53 | 1016.8 |
| 20260502010200 | 51 | 61 | 6.0 | 13.0 | 0.00 | 0.00 | 0.00 | 53 | 1016.8 |
| 20260502010101 | 51 | 42 | 6.0 | 13.0 | 0.00 | 0.00 | 0.00 | 52 | 1016.7 |
| 20260502005958 | 51 | 294 | 6.0 | 13.0 | 0.00 | 0.00 | 0.00 | 54 | 1016.8 |
| 20260502005859 | 51 | 355 | 5.0 | 13.0 | 0.00 | 0.00 | 0.00 | 54 | 1016.7 |
| 20260502005759 | 51 | 65 | 5.0 | 13.0 | 0.00 | 0.00 | 0.00 | 53 | 1016.5 |
| 20260502005659 | 51 | 335 | 5.0 | 13.0 | 0.00 | 0.00 | 0.00 | 55 | 1016.7 |
| 20260502005559 | 51 | 5 | 5.0 | 13.0 | 0.00 | 0.00 | 0.00 | 54 | 1016.5 |
| 20260502005459 | 51 | 318 | 5.0 | 13.0 | 0.00 | 0.00 | 0.00 | 53 | 1016.5 |
| 20260502005359 | 51 | 31 | 5.0 | 13.0 | 0.00 | 0.00 | 0.00 | 52 | 1016.5 |
| 20260502005259 | 51 | 17 | 5.0 | 11.0 | 0.00 | 0.00 | 0.00 | 52 | 1016.5 |
| 20260502005202 | 51 | 350 | 4.0 | 11.0 | 0.00 | 0.00 | 0.00 | 53 | 1016.5 |
| 20260502005131 | 51 | 5 | 4.0 | 11.0 | 0.00 | 0.00 | 0.00 | 53 | 1016.4 |
| 20260502005127 | 51 | 51 | 4.0 | 11.0 | 0.00 | 0.00 | 0.00 | 53 | 1016.4 |
| 20260502005106 | 51 | 5 | 4.0 | 11.0 | 0.00 | 0.00 | 0.00 | 53 | 1016.4 |
| 20260502005043 | 51 | 53 | 4.0 | 11.0 | 0.00 | 0.00 | 0.00 | 53 | 1016.4 |
| 20260502004701 | 51 | 324 | 4.0 | 12.0 | 0.00 | 0.00 | 0.00 | 54 | 1016.4 |
| 20260502004558 | 51 | 62 | 5.0 | 14.0 | 0.00 | 0.00 | 0.00 | 53 | 1016.4 |
| 20260502004457 | 51 | 61 | 5.0 | 14.0 | 0.00 | 0.00 | 0.00 | 53 | 1016.3 |
| 20260502004357 | 51 | 340 | 5.0 | 14.0 | 0.00 | 0.00 | 0.00 | 54 | 1016.2 |
| 20260502004300 | 51 | 300 | 5.0 | 14.0 | 0.00 | 0.00 | 0.00 | 53 | 1016.2 |
| 20260502004254 | 52 | 17 | 4.0 | 10.0 | 0.00 | 0.00 | 0.00 | 55 | 1015.9 |
| 20260502004248 | 52 | 20 | 4.0 | 11.0 | 0.00 | 0.00 | 0.00 | 55 | 1016.1 |
| 20260502004243 | 51 | 42 | 5.0 | 14.0 | 0.00 | 0.00 | 0.00 | 55 | 1016.1 |
| 20260502004225 | 51 | 13 | 5.0 | 14.0 | 0.00 | 0.00 | 0.00 | 54 | 1016.2 |
| 20260502004208 | 51 | 34 | 5.0 | 14.0 | 0.00 | 0.00 | 0.00 | 57 | 1016.1 |
| 20260502003924 | 52 | 340 | 4.0 | 10.0 | 0.00 | 0.00 | 0.00 | 56 | 1016.0 |
| 20260502003911 | 51 | 12 | 5.0 | 14.0 | 0.00 | 0.00 | 0.00 | 53 | 1016.1 |
| 20260502003847 | 51 | 17 | 5.0 | 14.0 | 0.00 | 0.00 | 0.00 | 53 | 1016.1 |
| 20260502003732 | 52 | 351 | 4.0 | 11.0 | 0.00 | 0.00 | 0.00 | 54 | 1016.0 |
| 20260502003717 | 51 | 337 | 5.0 | 14.0 | 0.00 | 0.00 | 0.00 | 55 | 1016.1 |
| 20260502003656 | 52 | 355 | 4.0 | 11.0 | 0.00 | 0.00 | 0.00 | 55 | 1016.1 |
| 20260502003532 | 52 | 5 | 4.0 | 11.0 | 0.00 | 0.00 | 0.00 | 55 | 1016.1 |
| 20260502003510 | 52 | 22 | 4.0 | 11.0 | 0.00 | 0.00 | 0.00 | 54 | 1016.1 |
| 20260502003057 | 52 | 0 | 4.0 | 10.0 | 0.00 | 0.00 | 0.00 | 54 | 1016.0 |
| 20260502003033 | 52 | 306 | 4.0 | 10.0 | 0.00 | 0.00 | 0.00 | 56 | 1016.0 |
| 20260502002647 | 52 | 15 | 4.0 | 10.0 | 0.00 | 0.00 | 0.00 | 55 | 1015.9 |
| 20260502002546 | 52 | 349 | 5.0 | 10.0 | 0.00 | 0.00 | 0.00 | 55 | 1015.9 |
| 20260502002447 | 52 | 346 | 5.0 | 11.0 | 0.00 | 0.00 | 0.00 | 57 | 1015.9 |
| 20260502002349 | 52 | 5 | 5.0 | 11.0 | 0.00 | 0.00 | 0.00 | 54 | 1015.8 |
| 20260502002246 | 52 | 34 | 5.0 | 11.0 | 0.00 | 0.00 | 0.00 | 54 | 1015.9 |
| 20260502002146 | 52 | 344 | 4.0 | 11.0 | 0.00 | 0.00 | 0.00 | 54 | 1015.9 |
| 20260502002047 | 52 | 336 | 4.0 | 11.0 | 0.00 | 0.00 | 0.00 | 56 | 1015.9 |
| 20260502001947 | 52 | 15 | 4.0 | 11.0 | 0.00 | 0.00 | 0.00 | 54 | 1015.8 |
| 20260502001847 | 52 | 330 | 5.0 | 11.0 | 0.00 | 0.00 | 0.00 | 55 | 1015.8 |
| 20260502001748 | 52 | 355 | 4.0 | 11.0 | 0.00 | 0.00 | 0.00 | 54 | 1015.8 |
| 20260502001702 | 52 | 323 | 4.0 | 11.0 | 0.00 | 0.00 | 0.00 | 55 | 1015.7 |
| 20260502001548 | 52 | 346 | 4.0 | 11.0 | 0.00 | 0.00 | 0.00 | 55 | 1015.8 |
| 20260502001448 | 52 | 325 | 4.0 | 9.0 | 0.00 | 0.00 | 0.00 | 53 | 1015.8 |
| 20260502001347 | 52 | 284 | 4.0 | 9.0 | 0.00 | 0.00 | 0.00 | 53 | 1015.7 |
| 20260502001249 | 53 | 281 | 4.0 | 9.0 | 0.00 | 0.00 | 0.00 | 55 | 1015.7 |
| 20260502001147 | 53 | 336 | 4.0 | 9.0 | 0.00 | 0.00 | 0.00 | 54 | 1015.7 |
| 20260502001048 | 53 | 329 | 5.0 | 10.0 | 0.00 | 0.00 | 0.00 | 55 | 1015.6 |
| 20260502001029 | 53 | 23 | 4.0 | 10.0 | 0.00 | 0.00 | 0.00 | 54 | 1015.5 |
| 20260502001015 | 53 | 329 | 4.0 | 10.0 | 0.00 | 0.00 | 0.00 | 54 | 1015.6 |
| 20260502000749 | 53 | 355 | 4.0 | 10.0 | 0.00 | 0.00 | 0.00 | 54 | 1015.5 |
| 20260502000648 | 53 | 344 | 4.0 | 12.0 | 0.00 | 0.00 | 0.00 | 54 | 1015.4 |
| 20260502000625 | 53 | 17 | 5.0 | 12.0 | 0.00 | 0.00 | 0.00 | 55 | 1015.4 |
| 20260502000612 | 53 | 17 | 5.0 | 12.0 | 0.00 | 0.00 | 0.00 | 55 | 1015.4 |
| 20260502000420 | 53 | 350 | 5.0 | 12.0 | 0.00 | 0.00 | 0.00 | 53 | 1015.4 |
| 20260502000410 | 53 | 327 | 5.0 | 12.0 | 0.00 | 0.00 | 0.00 | 53 | 1015.4 |
| 20260502000144 | 53 | 317 | 4.0 | 12.0 | 0.00 | 0.00 | 0.00 | 54 | 1015.3 |
| 20260502000114 | 53 | 31 | 5.0 | 12.0 | 0.00 | 0.00 | 0.00 | 54 | 1015.3 |
| 20260502000104 | 53 | 17 | 5.0 | 12.0 | 0.00 | 0.00 | 0.00 | 55 | 1015.3 |
| 20260501235842 | 53 | 0 | 5.0 | 12.0 | 0.00 | 0.00 | 0.00 | 54 | 1015.3 |
| 20260501235747 | 53 | 342 | 5.0 | 12.0 | 0.00 | 0.00 | 0.00 | 55 | 1015.3 |
| 20260501235642 | 53 | 5 | 5.0 | 12.0 | 0.00 | 0.00 | 0.00 | 54 | 1015.3 |
| 20260501235544 | 53 | 72 | 5.0 | 12.0 | 0.00 | 0.00 | 0.00 | 54 | 1015.2 |
| 20260501235444 | 53 | 23 | 5.0 | 12.0 | 0.00 | 0.00 | 0.00 | 53 | 1015.3 |
| 20260501235343 | 53 | 355 | 5.0 | 12.0 | 0.00 | 0.00 | 0.00 | 54 | 1015.3 |
| 20260501235316 | 53 | 0 | 5.0 | 12.0 | 0.00 | 0.00 | 0.00 | 54 | 1015.3 |
| 20260501235306 | 53 | 0 | 5.0 | 12.0 | 0.00 | 0.00 | 0.00 | 53 | 1015.3 |
| 20260501235045 | 53 | 5 | 5.0 | 12.0 | 0.00 | 0.00 | 0.00 | 53 | 1015.3 |
| 20260501235002 | 53 | 5 | 4.0 | 10.0 | 0.00 | 0.00 | 0.00 | 54 | 1015.3 |
| 20260501234956 | 53 | 288 | 4.0 | 10.0 | 0.00 | 0.00 | 0.00 | 54 | 1015.3 |
| 20260501234945 | 53 | 342 | 5.0 | 12.0 | 0.00 | 0.00 | 0.00 | 54 | 1015.3 |
| 20260501234920 | 53 | 15 | 4.0 | 12.0 | 0.00 | 0.00 | 0.00 | 55 | 1015.3 |
| 20260501234534 | 53 | 11 | 4.0 | 10.0 | 0.00 | 0.00 | 0.00 | 55 | 1015.3 |
| 20260501234434 | 53 | 5 | 4.0 | 10.0 | 0.00 | 0.00 | 0.00 | 55 | 1015.3 |
| 20260501234336 | 53 | 336 | 4.0 | 10.0 | 0.00 | 0.00 | 0.00 | 54 | 1015.4 |
| 20260501234229 | 53 | 17 | 4.0 | 13.0 | 0.00 | 0.00 | 0.00 | 56 | 1015.5 |
| 20260501234146 | 53 | 59 | 4.0 | 13.0 | 0.00 | 0.00 | 0.00 | 57 | 1015.4 |
| 20260501234142 | 53 | 348 | 4.0 | 13.0 | 0.00 | 0.00 | 0.00 | 56 | 1015.4 |
| 20260501234130 | 53 | 324 | 4.0 | 13.0 | 0.00 | 0.00 | 0.00 | 55 | 1015.5 |
| 20260501234110 | 53 | 5 | 4.0 | 13.0 | 0.00 | 0.00 | 0.00 | 56 | 1015.4 |
| 20260501233815 | 53 | 350 | 5.0 | 13.0 | 0.00 | 0.00 | 0.00 | 57 | 1015.3 |
| 20260501233759 | 53 | 338 | 4.0 | 13.0 | 0.00 | 0.00 | 0.00 | 56 | 1015.4 |
| 20260501233524 | 53 | 336 | 5.0 | 13.0 | 0.00 | 0.00 | 0.00 | 58 | 1015.4 |
| 20260501233425 | 53 | 333 | 5.0 | 13.0 | 0.00 | 0.00 | 0.00 | 57 | 1015.4 |
| 20260501233324 | 53 | 355 | 4.0 | 13.0 | 0.00 | 0.00 | 0.00 | 57 | 1015.4 |
| 20260501233216 | 53 | 355 | 4.0 | 11.0 | 0.00 | 0.00 | 0.00 | 57 | 1015.4 |
| 20260501233113 | 54 | 303 | 4.0 | 11.0 | 0.00 | 0.00 | 0.00 | 58 | 1015.3 |
| 20260501233018 | 54 | 325 | 4.0 | 12.0 | 0.00 | 0.00 | 0.00 | 58 | 1015.3 |
| 20260501232914 | 54 | 347 | 4.0 | 12.0 | 0.00 | 0.00 | 0.00 | 60 | 1015.3 |
| 20260501232844 | 54 | 351 | 4.0 | 12.0 | 0.00 | 0.00 | 0.00 | 59 | 1015.2 |
| 20260501232833 | 54 | 20 | 4.0 | 12.0 | 0.00 | 0.00 | 0.00 | 60 | 1015.3 |
| 20260501232609 | 54 | 11 | 4.0 | 12.0 | 0.00 | 0.00 | 0.00 | 60 | 1015.2 |
| 20260501232509 | 54 | 16 | 4.0 | 12.0 | 0.00 | 0.00 | 0.00 | 60 | 1015.2 |
| 20260501232439 | 54 | 45 | 4.0 | 12.0 | 0.00 | 0.00 | 0.00 | 61 | 1015.2 |
| 20260501232430 | 54 | 5 | 4.0 | 12.0 | 0.00 | 0.00 | 0.00 | 60 | 1015.1 |
| 20260501232203 | 54 | 298 | 4.0 | 12.0 | 0.00 | 0.00 | 0.00 | 60 | 1015.2 |
| 20260501232103 | 54 | 0 | 4.0 | 12.0 | 0.00 | 0.00 | 0.00 | 59 | 1015.2 |
| 20260501232003 | 54 | 355 | 4.0 | 12.0 | 0.00 | 0.00 | 0.00 | 61 | 1015.2 |
| 20260501231916 | 54 | 50 | 4.0 | 12.0 | 0.00 | 0.00 | 0.00 | 60 | 1015.2 |
| 20260501231906 | 54 | 24 | 4.0 | 12.0 | 0.00 | 0.00 | 0.00 | 61 | 1015.3 |
| 20260501231859 | 55 | 15 | 4.0 | 12.0 | 0.00 | 0.00 | 0.00 | 61 | 1015.2 |
| 20260501231838 | 54 | 34 | 4.0 | 12.0 | 0.00 | 0.00 | 0.00 | 61 | 1015.2 |
| 20260501231710 | 54 | 24 | 4.0 | 12.0 | 0.00 | 0.00 | 0.00 | 62 | 1015.1 |
| 20260501231655 | 54 | 45 | 4.0 | 12.0 | 0.00 | 0.00 | 0.00 | 61 | 1015.2 |
| 20260501231414 | 55 | 19 | 4.0 | 12.0 | 0.00 | 0.00 | 0.00 | 61 | 1015.1 |
| 20260501231151 | 55 | 65 | 4.0 | 12.0 | 0.00 | 0.00 | 0.00 | 61 | 1015.2 |
| 20260501231051 | 55 | 16 | 4.0 | 12.0 | 0.00 | 0.00 | 0.00 | 61 | 1015.3 |
| 20260501230949 | 55 | 204 | 4.0 | 11.0 | 0.00 | 0.00 | 0.00 | 61 | 1015.4 |
| 20260501230850 | 55 | 335 | 4.0 | 11.0 | 0.00 | 0.00 | 0.00 | 61 | 1015.3 |
| 20260501230749 | 55 | 271 | 4.0 | 11.0 | 0.00 | 0.00 | 0.00 | 62 | 1015.4 |
| 20260501230649 | 55 | 355 | 3.0 | 11.0 | 0.00 | 0.00 | 0.00 | 62 | 1015.3 |
| 20260501230551 | 55 | 355 | 4.0 | 11.0 | 0.00 | 0.00 | 0.00 | 62 | 1015.3 |
| 20260501230526 | 55 | 335 | 4.0 | 12.0 | 0.00 | 0.00 | 0.00 | 63 | 1015.2 |
| 20260501230512 | 55 | 289 | 4.0 | 11.0 | 0.00 | 0.00 | 0.00 | 64 | 1015.2 |
| 20260501230249 | 55 | 341 | 4.0 | 12.0 | 0.00 | 0.00 | 0.00 | 62 | 1015.2 |
| 20260501230149 | 55 | 26 | 4.0 | 12.0 | 0.00 | 0.00 | 0.00 | 62 | 1015.2 |
| 20260501230051 | 55 | 311 | 4.0 | 15.0 | 0.00 | 0.00 | 0.00 | 62 | 1015.2 |
| 20260501225947 | 55 | 342 | 4.0 | 15.0 | 0.00 | 0.00 | 0.00 | 63 | 1015.2 |
| 20260501225847 | 55 | 350 | 4.0 | 15.0 | 0.00 | 0.00 | 0.00 | 63 | 1015.1 |
| 20260501225747 | 55 | 339 | 5.0 | 15.0 | 0.00 | 0.00 | 0.00 | 63 | 1015.1 |
| 20260501225648 | 55 | 34 | 5.0 | 15.0 | 0.00 | 0.00 | 0.00 | 62 | 1015.0 |
| 20260501225546 | 55 | 311 | 5.0 | 15.0 | 0.00 | 0.00 | 0.00 | 62 | 1015.0 |
| 20260501225447 | 55 | 41 | 4.0 | 15.0 | 0.00 | 0.00 | 0.00 | 62 | 1014.8 |
| 20260501225419 | 56 | 5 | 5.0 | 15.0 | 0.00 | 0.00 | 0.00 | 62 | 1014.8 |
| 20260501225409 | 55 | 322 | 4.0 | 15.0 | 0.00 | 0.00 | 0.00 | 63 | 1014.8 |
| 20260501225146 | 56 | 323 | 4.0 | 15.0 | 0.00 | 0.00 | 0.00 | 62 | 1015.0 |
| 20260501225120 | 56 | 14 | 5.0 | 13.0 | 0.00 | 0.00 | 0.00 | 61 | 1014.8 |
| 20260501225108 | 56 | 11 | 5.0 | 13.0 | 0.00 | 0.00 | 0.00 | 63 | 1015.0 |
| 20260501224849 | 56 | 28 | 5.0 | 13.0 | 0.00 | 0.00 | 0.00 | 62 | 1014.8 |
| 20260501224747 | 56 | 24 | 4.0 | 13.0 | 0.00 | 0.00 | 0.00 | 62 | 1014.8 |
| 20260501224647 | 56 | 12 | 4.0 | 12.0 | 0.00 | 0.00 | 0.00 | 62 | 1014.8 |
| 20260501224548 | 56 | 30 | 4.0 | 12.0 | 0.00 | 0.00 | 0.00 | 63 | 1014.8 |
| 20260501224447 | 56 | 22 | 4.0 | 12.0 | 0.00 | 0.00 | 0.00 | 62 | 1014.7 |
| 20260501224348 | 56 | 275 | 4.0 | 12.0 | 0.00 | 0.00 | 0.00 | 62 | 1014.7 |
| 20260501224248 | 56 | 325 | 4.0 | 12.0 | 0.00 | 0.00 | 0.00 | 62 | 1014.7 |
| 20260501224148 | 56 | 13 | 4.0 | 12.0 | 0.00 | 0.00 | 0.00 | 63 | 1014.6 |
| 20260501224125 | 56 | 331 | 3.0 | 11.0 | 0.00 | 0.00 | 0.00 | 63 | 1014.6 |
| 20260501224112 | 56 | 54 | 3.0 | 11.0 | 0.00 | 0.00 | 0.00 | 62 | 1014.7 |
| 20260501223847 | 56 | 237 | 4.0 | 11.0 | 0.00 | 0.00 | 0.00 | 63 | 1014.6 |
| 20260501223747 | 56 | 279 | 4.0 | 11.0 | 0.00 | 0.00 | 0.00 | 62 | 1014.6 |
| 20260501223645 | 56 | 11 | 4.0 | 11.0 | 0.00 | 0.00 | 0.00 | 61 | 1014.6 |
| 20260501223545 | 56 | 20 | 4.0 | 11.0 | 0.00 | 0.00 | 0.00 | 62 | 1014.6 |
| 20260501223446 | 56 | 26 | 4.0 | 11.0 | 0.00 | 0.00 | 0.00 | 62 | 1014.6 |
| 20260501223342 | 56 | 38 | 4.0 | 11.0 | 0.00 | 0.00 | 0.00 | 61 | 1014.6 |
| 20260501223242 | 56 | 204 | 4.0 | 11.0 | 0.00 | 0.00 | 0.00 | 61 | 1014.7 |
| 20260501223142 | 57 | 295 | 4.0 | 9.0 | 0.00 | 0.00 | 0.00 | 60 | 1014.6 |
| 20260501223040 | 57 | 0 | 4.0 | 9.0 | 0.00 | 0.00 | 0.00 | 61 | 1014.6 |
| 20260501222943 | 57 | 320 | 4.0 | 11.0 | 0.00 | 0.00 | 0.00 | 61 | 1014.6 |
| 20260501222842 | 57 | 323 | 4.0 | 11.0 | 0.00 | 0.00 | 0.00 | 60 | 1014.6 |
| 20260501222741 | 57 | 13 | 3.0 | 11.0 | 0.00 | 0.00 | 0.00 | 61 | 1014.7 |
| 20260501222702 | 57 | 314 | 3.0 | 11.0 | 0.00 | 0.00 | 0.00 | 60 | 1014.6 |
| 20260501222656 | 57 | 355 | 3.0 | 11.0 | 0.00 | 0.00 | 0.00 | 61 | 1014.7 |
| 20260501222645 | 57 | 25 | 3.0 | 11.0 | 0.00 | 0.00 | 0.00 | 61 | 1014.6 |
| 20260501222618 | 57 | 345 | 3.0 | 11.0 | 0.00 | 0.00 | 0.00 | 60 | 1014.6 |
| 20260501222241 | 57 | 338 | 4.0 | 11.0 | 0.00 | 0.00 | 0.00 | 60 | 1014.6 |
| 20260501222139 | 57 | 355 | 3.0 | 11.0 | 0.00 | 0.00 | 0.00 | 60 | 1014.7 |
| 20260501222038 | 57 | 321 | 3.0 | 11.0 | 0.00 | 0.00 | 0.00 | 61 | 1014.6 |
| 20260501221940 | 57 | 351 | 3.0 | 15.0 | 0.00 | 0.00 | 0.00 | 62 | 1014.5 |
| 20260501221912 | 57 | 344 | 4.0 | 15.0 | 0.00 | 0.00 | 0.00 | 60 | 1014.6 |
| 20260501221900 | 57 | 346 | 4.0 | 15.0 | 0.00 | 0.00 | 0.00 | 61 | 1014.6 |
| 20260501221637 | 57 | 318 | 5.0 | 15.0 | 0.00 | 0.00 | 0.00 | 60 | 1014.6 |
| 20260501221538 | 57 | 298 | 5.0 | 15.0 | 0.00 | 0.00 | 0.00 | 60 | 1014.6 |
| 20260501221438 | 57 | 318 | 5.0 | 15.0 | 0.00 | 0.00 | 0.00 | 60 | 1014.6 |
| 20260501221332 | 57 | 37 | 5.0 | 15.0 | 0.00 | 0.00 | 0.00 | 59 | 1014.6 |
| 20260501221232 | 57 | 325 | 5.0 | 15.0 | 0.00 | 0.00 | 0.00 | 61 | 1014.6 |
| 20260501221132 | 57 | 298 | 6.0 | 15.0 | 0.00 | 0.00 | 0.00 | 59 | 1014.6 |
| 20260501221032 | 57 | 317 | 6.0 | 15.0 | 0.00 | 0.00 | 0.00 | 60 | 1014.7 |
| 20260501220931 | 57 | 304 | 6.0 | 12.0 | 0.00 | 0.00 | 0.00 | 61 | 1014.5 |
| 20260501220831 | 57 | 340 | 6.0 | 13.0 | 0.00 | 0.00 | 0.00 | 58 | 1014.6 |
| 20260501220731 | 57 | 0 | 6.0 | 13.0 | 0.00 | 0.00 | 0.00 | 58 | 1014.6 |
| 20260501220631 | 57 | 329 | 6.0 | 13.0 | 0.00 | 0.00 | 0.00 | 59 | 1014.7 |
| 20260501220531 | 57 | 262 | 5.0 | 13.0 | 0.00 | 0.00 | 0.00 | 59 | 1014.6 |
| 20260501220430 | 58 | 355 | 5.0 | 13.0 | 0.00 | 0.00 | 0.00 | 60 | 1014.6 |
| 20260501220331 | 58 | 326 | 5.0 | 13.0 | 0.00 | 0.00 | 0.00 | 59 | 1014.7 |
| 20260501220301 | 58 | 318 | 5.0 | 13.0 | 0.00 | 0.00 | 0.00 | 58 | 1014.7 |
| 20260501220251 | 58 | 325 | 5.0 | 13.0 | 0.00 | 0.00 | 0.00 | 58 | 1014.7 |
| 20260501220029 | 58 | 342 | 5.0 | 13.0 | 0.00 | 0.00 | 0.00 | 58 | 1014.7 |
| 20260501215928 | 58 | 302 | 4.0 | 13.0 | 0.00 | 0.00 | 0.00 | 58 | 1014.8 |
| 20260501215828 | 58 | 321 | 3.0 | 12.0 | 0.00 | 0.00 | 0.00 | 58 | 1014.7 |
| 20260501215728 | 58 | 319 | 3.0 | 12.0 | 0.00 | 0.00 | 0.00 | 59 | 1014.8 |
| 20260501215629 | 58 | 315 | 3.0 | 12.0 | 0.00 | 0.00 | 0.00 | 59 | 1014.7 |
| 20260501215526 | 59 | 298 | 3.0 | 12.0 | 0.00 | 0.00 | 0.00 | 58 | 1014.7 |
| 20260501215427 | 59 | 318 | 3.0 | 12.0 | 0.00 | 0.00 | 0.00 | 59 | 1014.7 |
| 20260501215326 | 59 | 346 | 3.0 | 12.0 | 0.00 | 0.00 | 0.00 | 59 | 1014.8 |
| 20260501215227 | 59 | 338 | 3.0 | 12.0 | 0.00 | 0.00 | 0.00 | 61 | 1014.8 |
| 20260501215126 | 59 | 24 | 3.0 | 9.0 | 0.00 | 0.00 | 0.00 | 60 | 1015.0 |
| 20260501215025 | 58 | 302 | 3.0 | 10.0 | 0.00 | 0.00 | 0.00 | 61 | 1014.7 |
| 20260501214926 | 58 | 306 | 4.0 | 10.0 | 0.00 | 0.00 | 0.00 | 61 | 1014.8 |
| 20260501214824 | 58 | 319 | 4.0 | 11.0 | 0.00 | 0.00 | 0.00 | 60 | 1014.8 |
| 20260501214744 | 58 | 306 | 5.0 | 11.0 | 0.00 | 0.00 | 0.00 | 61 | 1015.0 |
| 20260501214732 | 58 | 319 | 4.0 | 11.0 | 0.00 | 0.00 | 0.00 | 60 | 1014.8 |
| 20260501214707 | 58 | 286 | 5.0 | 11.0 | 0.00 | 0.00 | 0.00 | 61 | 1015.0 |
| 20260501214459 | 58 | 23 | 5.0 | 11.0 | 0.00 | 0.00 | 0.00 | 62 | 1015.0 |
| 20260501214447 | 58 | 295 | 5.0 | 11.0 | 0.00 | 0.00 | 0.00 | 61 | 1015.0 |
| 20260501214225 | 58 | 270 | 5.0 | 11.0 | 0.00 | 0.00 | 0.00 | 61 | 1015.0 |
| 20260501214120 | 58 | 276 | 4.0 | 11.0 | 0.00 | 0.00 | 0.00 | 61 | 1015.1 |
| 20260501214107 | 58 | 42 | 3.0 | 9.0 | 0.00 | 0.00 | 0.00 | 62 | 1015.1 |
| 20260501214101 | 58 | 5 | 3.0 | 9.0 | 0.00 | 0.00 | 0.00 | 62 | 1015.1 |
| 20260501214056 | 58 | 311 | 3.0 | 9.0 | 0.00 | 0.00 | 0.00 | 61 | 1015.1 |
| 20260501214040 | 58 | 276 | 4.0 | 11.0 | 0.00 | 0.00 | 0.00 | 61 | 1015.1 |
| 20260501214024 | 58 | 314 | 3.0 | 11.0 | 0.00 | 0.00 | 0.00 | 62 | 1015.1 |
| 20260501213520 | 59 | 298 | 2.0 | 9.0 | 0.00 | 0.00 | 0.00 | 62 | 1015.1 |
| 20260501213422 | 59 | 313 | 2.0 | 9.0 | 0.00 | 0.00 | 0.00 | 63 | 1015.2 |
| 20260501213321 | 59 | 321 | 2.0 | 8.0 | 0.00 | 0.00 | 0.00 | 62 | 1015.1 |
| 20260501213221 | 59 | 24 | 2.0 | 5.0 | 0.00 | 0.00 | 0.00 | 63 | 1015.2 |
| 20260501213157 | 59 | 207 | 2.0 | 9.0 | 0.00 | 0.00 | 0.00 | 63 | 1015.1 |
| 20260501213143 | 59 | 319 | 2.0 | 5.0 | 0.00 | 0.00 | 0.00 | 64 | 1015.2 |
| 20260501212922 | 59 | 0 | 2.0 | 10.0 | 0.00 | 0.00 | 0.00 | 62 | 1015.1 |
| 20260501212824 | 59 | 0 | 2.0 | 10.0 | 0.00 | 0.00 | 0.00 | 62 | 1015.1 |
| 20260501212750 | 59 | 0 | 3.0 | 10.0 | 0.00 | 0.00 | 0.00 | 63 | 1015.1 |
| 20260501212739 | 59 | 40 | 2.0 | 10.0 | 0.00 | 0.00 | 0.00 | 64 | 1015.1 |
| 20260501212520 | 59 | 0 | 3.0 | 10.0 | 0.00 | 0.00 | 0.00 | 63 | 1015.1 |
| 20260501212428 | 59 | 30 | 4.0 | 14.0 | 0.00 | 0.00 | 0.00 | 64 | 1015.2 |
| 20260501212419 | 59 | 0 | 4.0 | 14.0 | 0.00 | 0.00 | 0.00 | 63 | 1015.1 |
| 20260501212412 | 59 | 30 | 4.0 | 14.0 | 0.00 | 0.00 | 0.00 | 62 | 1015.2 |
| 20260501212354 | 59 | 0 | 4.0 | 14.0 | 0.00 | 0.00 | 0.00 | 64 | 1015.2 |
| 20260501212014 | 59 | 336 | 4.0 | 14.0 | 0.00 | 0.00 | 0.00 | 63 | 1015.3 |
| 20260501211915 | 59 | 21 | 4.0 | 14.0 | 0.00 | 0.00 | 0.00 | 62 | 1015.3 |
| 20260501211814 | 59 | 319 | 4.0 | 14.0 | 0.00 | 0.00 | 0.00 | 62 | 1015.3 |
| 20260501211714 | 59 | 308 | 4.0 | 14.0 | 0.00 | 0.00 | 0.00 | 62 | 1015.3 |
| 20260501211616 | 59 | 321 | 4.0 | 14.0 | 0.00 | 0.00 | 0.00 | 61 | 1015.2 |
| 20260501211516 | 59 | 344 | 4.0 | 14.0 | 0.00 | 0.00 | 0.00 | 63 | 1015.2 |
| 20260501211417 | 59 | 337 | 4.0 | 8.0 | 0.00 | 0.00 | 0.00 | 62 | 1015.3 |
| 20260501211316 | 59 | 267 | 4.0 | 9.0 | 0.00 | 0.00 | 0.00 | 62 | 1015.3 |
| 20260501211216 | 59 | 333 | 4.0 | 9.0 | 0.00 | 0.00 | 0.00 | 62 | 1015.3 |
| 20260501211144 | 59 | 300 | 5.0 | 12.0 | 0.00 | 0.00 | 0.00 | 62 | 1015.2 |
| 20260501211135 | 59 | 329 | 5.0 | 9.0 | 0.00 | 0.00 | 0.00 | 62 | 1015.3 |
| 20260501210915 | 59 | 243 | 5.0 | 12.0 | 0.00 | 0.00 | 0.00 | 62 | 1015.3 |
| 20260501210815 | 59 | 306 | 4.0 | 12.0 | 0.00 | 0.00 | 0.00 | 62 | 1015.3 |
| 20260501210716 | 59 | 243 | 5.0 | 15.0 | 0.00 | 0.00 | 0.00 | 62 | 1015.3 |
| 20260501210616 | 59 | 15 | 5.0 | 15.0 | 0.00 | 0.00 | 0.00 | 62 | 1015.3 |
| 20260501210551 | 59 | 307 | 5.0 | 15.0 | 0.00 | 0.00 | 0.00 | 61 | 1015.3 |
| 20260501210540 | 59 | 300 | 5.0 | 15.0 | 0.00 | 0.00 | 0.00 | 61 | 1015.3 |
| 20260501210314 | 59 | 311 | 5.0 | 15.0 | 0.00 | 0.00 | 0.00 | 63 | 1015.3 |
| 20260501210216 | 59 | 332 | 5.0 | 15.0 | 0.00 | 0.00 | 0.00 | 61 | 1015.3 |
| 20260501210002 | 59 | 204 | 5.0 | 15.0 | 0.00 | 0.00 | 0.00 | 62 | 1015.3 |
| 20260501205903 | 59 | 290 | 5.0 | 15.0 | 0.00 | 0.00 | 0.00 | 62 | 1015.3 |
| 20260501205803 | 59 | 5 | 5.0 | 15.0 | 0.00 | 0.00 | 0.00 | 61 | 1015.4 |
| 20260501205702 | 59 | 333 | 5.0 | 13.0 | 0.00 | 0.00 | 0.00 | 61 | 1015.3 |
| 20260501205603 | 59 | 311 | 5.0 | 14.0 | 0.00 | 0.00 | 0.00 | 61 | 1015.3 |
| 20260501205502 | 59 | 46 | 5.0 | 14.0 | 0.00 | 0.00 | 0.00 | 61 | 1015.3 |
| 20260501205434 | 59 | 301 | 6.0 | 14.0 | 0.00 | 0.00 | 0.00 | 65 | 1015.3 |
| 20260501205424 | 59 | 304 | 6.0 | 14.0 | 0.00 | 0.00 | 0.00 | 61 | 1015.3 |
| 20260501205202 | 59 | 273 | 6.0 | 14.0 | 0.00 | 0.00 | 0.00 | 64 | 1015.3 |
| 20260501205103 | 59 | 311 | 6.0 | 14.0 | 0.00 | 0.00 | 0.00 | 61 | 1015.3 |
| 20260501205002 | 59 | 248 | 5.0 | 14.0 | 0.00 | 0.00 | 0.00 | 62 | 1015.3 |
| 20260501204904 | 59 | 347 | 6.0 | 14.0 | 0.00 | 0.00 | 0.00 | 62 | 1015.3 |
| 20260501204803 | 59 | 349 | 6.0 | 14.0 | 0.00 | 0.00 | 0.00 | 61 | 1015.3 |
| 20260501204703 | 59 | 327 | 6.0 | 14.0 | 0.00 | 0.00 | 0.00 | 62 | 1015.4 |
| 20260501204603 | 59 | 279 | 5.0 | 13.0 | 0.00 | 0.00 | 0.00 | 62 | 1015.3 |
| 20260501204502 | 59 | 0 | 5.0 | 13.0 | 0.00 | 0.00 | 0.00 | 62 | 1015.3 |
| 20260501204402 | 59 | 325 | 4.0 | 12.0 | 0.00 | 0.00 | 0.00 | 62 | 1015.3 |
| 20260501204302 | 60 | 334 | 4.0 | 12.0 | 0.00 | 0.00 | 0.00 | 63 | 1015.2 |
| 20260501204234 | 60 | 265 | 4.0 | 12.0 | 0.00 | 0.00 | 0.00 | 63 | 1015.4 |
| 20260501204223 | 60 | 25 | 4.0 | 12.0 | 0.00 | 0.00 | 0.00 | 62 | 1015.3 |
| 20260501204005 | 60 | 330 | 4.0 | 12.0 | 0.00 | 0.00 | 0.00 | 62 | 1015.4 |
| 20260501203903 | 60 | 350 | 4.0 | 12.0 | 0.00 | 0.00 | 0.00 | 63 | 1015.3 |
| 20260501203802 | 60 | 332 | 4.0 | 11.0 | 0.00 | 0.00 | 0.00 | 62 | 1015.4 |
| 20260501203702 | 60 | 18 | 4.0 | 11.0 | 0.00 | 0.00 | 0.00 | 62 | 1015.3 |
| 20260501203604 | 60 | 271 | 3.0 | 11.0 | 0.00 | 0.00 | 0.00 | 62 | 1015.3 |